GFSMA_con_mucape_057.txt.gz
CAPE
241 386 309 221 65 87 1 3 10 5 2 4 9 16 27 38 21 8 10 26 34 30 17 19 9 1 0 0 0 0 0 0 0 0 0 0 0 0 0 0 0 0 0
205 310 319 290 188 170 69 20 32 4 1 3 7 16 22 27 42 13 8 14 27 29 31 9 10 8 0 0 0 0 0 0 0 0 0 0 0 0 0 0 0 0 0
265 393 369 306 256 242 158 57 16 3 0 1 3 3 8 14 17 45 15 12 13 17 35 32 19 4 3 0 0 0 0 0 0 0 0 0 0 0 0 0 0 0 0
224 284 164 130 84 152 83 31 0 1 0 0 1 0 1 3 4 6 34 54 9 22 8 30 36 24 0 0 0 0 0 0 0 0 0 0 0 0 0 0 0 0 0
88 114 28 85 92 81 59 13 9 6 1 0 1 0 0 0 0 0 2 8 56 26 20 0 2 18 23 7 0 0 0 0 0 0 0 0 0 0 0 0 0 0 0
84 117 102 187 77 40 15 6 60 8 10 1 0 0 0 0 0 0 0 0 1 10 72 90 0 1 13 32 19 0 0 0 0 0 0 0 0 0 0 0 0 0 0
72 110 69 190 169 98 69 135 13 3 1 1 0 0 0 0 0 0 0 0 0 3 3 9 90 13 2 0 14 6 8 14 0 0 0 0 0 0 0 0 0 0 0
63 95 110 78 156 151 261 227 168 34 5 2 0 0 0 0 0 0 0 0 1 0 0 9 25 85 70 20 12 24 19 14 24 0 0 0 0 0 0 0 0 0 0
72 78 119 144 167 239 327 333 239 200 92 61 68 70 82 59 92 33 21 0 0 0 0 0 1 3 41 65 18 7 0 0 20 18 0 0 0 0 0 0 0 0 0
114 52 130 253 293 229 352 426 319 297 341 253 157 67 331 261 221 59 38 1 0 0 3 8 20 2 9 18 28 13 0 0 0 4 58 85 37 30 0 0 0 0 0
75 101 193 296 327 314 371 405 440 463 378 367 343 270 229 242 288 206 175 76 12 10 22 21 19 20 2 41 61 35 11 3 1 1 1 7 16 65 97 80 72 60 65
154 125 186 241 346 468 498 437 436 529 549 474 428 351 300 193 181 250 222 203 186 47 16 5 10 25 19 1 1 12 5 1 7 4 1 0 0 0 3 0 0 0 58
30 121 198 182 324 414 453 252 379 590 626 648 539 546 405 276 336 325 261 148 187 85 13 7 15 1 6 3 1 0 0 2 3 3 5 1 0 0 0 0 0 3 11
2 62 212 305 399 481 525 403 451 457 271 387 660 455 569 241 385 385 289 318 89 4 0 0 0 0 0 2 0 3 7 14 5 3 4 1 1 0 0 0 0 0 0
22 54 125 249 323 360 375 368 458 487 420 566 621 694 485 359 370 364 391 303 193 14 0 0 0 0 0 4 0 0 21 13 5 6 7 3 1 0 0 0 0 0 0
37 50 52 69 78 156 216 268 217 267 258 343 326 444 464 456 365 462 306 187 29 14 10 28 0 0 3 0 1 34 12 2 3 4 6 1 0 0 0 0 0 0 0
85 50 45 60 51 72 91 128 104 130 177 214 269 362 330 365 350 336 87 1 0 2 0 0 0 0 0 0 2 1 3 6 1 5 3 0 0 0 0 0 0 0 0
339 221 72 103 52 45 89 145 122 79 155 177 214 255 247 198 293 156 80 0 0 0 0 0 0 0 4 1 1 24 2 8 12 3 5 0 0 0 0 0 0 0 0
473 309 242 181 86 107 84 116 126 151 177 185 171 174 208 290 161 79 0 5 5 2 9 14 6 10 19 1 21 14 18 1 11 8 0 0 0 0 0 0 0 0 0
452 411 359 243 222 208 125 104 92 177 188 92 193 67 70 199 72 32 15 56 50 1 5 33 23 30 23 29 13 10 5 10 4 4 0 3 0 0 0 0 0 0 0
340 312 294 316 305 201 99 131 78 64 12 8 31 199 156 147 84 41 52 72 1 11 50 61 25 35 38 55 11 11 6 1 0 3 6 1 0 0 0 0 0 0 0
382 325 257 276 294 167 108 143 149 212 14 0 33 79 61 48 54 37 117 128 3 5 46 7 60 28 53 38 8 1 0 0 0 0 0 0 0 0 0 0 0 0 0
377 318 295 285 263 322 133 153 169 113 216 223 120 39 37 41 79 180 144 63 137 68 78 25 23 42 30 5 0 0 0 0 0 0 0 0 0 0 0 0 0 0 0
361 388 368 367 324 256 114 127 152 144 95 40 44 53 85 85 127 263 222 167 145 104 56 12 0 0 7 0 3 8 3 2 0 0 0 0 0 0 0 0 0 0 0
495 421 335 341 143 131 174 142 187 153 180 179 219 276 228 183 124 118 123 147 60 88 1 1 4 0 4 7 6 3 0 0 0 0 0 0 0 0 0 0 0 0 0
140 87 103 104 153 189 230 173 123 184 348 268 271 201 144 90 107 57 32 72 47 25 1 0 0 0 3 4 0 0 0 0 0 0 0 0 0 0 0 0 0 0 0

GFSMA_con_mucape_060.txt.gz
CAPE
53 116 83 1 0 0 0 0 0 0 0 0 16 14 29 8 0 0 1 17 21 23 10 7 7 5 0 0 0 0 0 0 0 0 0 0 0 0 0 0 0 0 0
33 110 136 22 0 0 0 0 1 0 0 0 4 6 26 12 0 0 0 2 11 20 23 10 5 4 4 0 0 0 0 0 0 0 0 0 0 0 0 0 0 0 0
23 148 151 107 27 6 0 0 5 0 4 2 2 7 3 26 3 0 0 0 0 5 17 18 11 3 1 0 0 0 0 0 0 0 0 0 0 0 0 0 0 0 0
91 140 149 126 66 53 35 37 1 0 2 1 0 0 0 0 14 3 0 0 0 0 5 21 19 9 2 0 0 0 0 0 0 0 0 0 0 0 0 0 0 0 0
78 70 90 107 111 70 41 19 1 0 0 6 0 0 0 0 0 1 4 0 0 0 0 0 0 1 0 5 0 0 0 0 0 0 0 0 0 0 0 0 0 0 0
38 7 41 24 34 39 29 10 5 4 3 2 0 0 0 0 0 0 0 2 1 0 0 0 0 0 0 3 4 0 8 0 0 0 0 0 0 0 0 0 0 0 0
34 56 43 57 32 14 3 23 36 13 7 0 9 1 0 0 0 0 0 0 0 0 10 7 0 0 0 0 0 0 8 15 10 0 0 0 0 0 0 0 0 0 0
41 30 50 60 73 119 102 50 15 25 5 0 0 0 0 0 0 0 0 0 0 0 0 1 3 0 0 0 0 13 14 12 14 9 0 0 0 0 0 0 0 0 0
3 15 58 91 96 118 84 71 73 49 0 0 0 0 0 0 0 0 0 0 0 0 0 0 0 3 2 2 1 0 6 2 12 34 44 19 10 0 0 0 0 0 0
30 32 62 79 70 47 126 140 139 127 104 2 0 0 20 107 67 15 17 2 1 0 0 0 0 0 6 15 10 4 0 0 0 6 56 74 57 15 0 0 0 0 0
121 39 54 104 67 42 46 100 150 165 154 152 52 82 51 97 138 103 8 9 6 0 0 2 15 0 16 21 16 14 1 0 0 0 5 40 95 102 88 70 67 65 58
93 99 49 68 112 123 74 109 158 178 168 225 171 159 134 136 113 120 101 67 24 6 7 4 0 2 12 5 0 0 2 12 2 0 0 0 14 13 62 69 54 49 73
13 65 43 42 79 80 126 159 146 164 250 174 183 150 164 86 69 98 74 49 48 45 30 1 0 1 0 0 0 0 0 0 2 0 0 0 3 7 9 10 5 1 0
2 3 22 15 47 61 87 177 170 148 128 161 118 74 160 157 96 98 50 99 67 64 53 9 0 0 0 0 0 2 3 4 5 2 0 3 5 6 2 5 3 3 0
5 2 32 36 19 35 90 130 126 118 104 117 103 175 109 101 201 95 109 134 85 21 15 2 0 0 0 1 3 2 5 1 2 3 0 15 3 6 15 15 11 0 0
0 7 8 56 55 47 83 132 134 82 100 107 105 81 121 88 144 119 81 85 97 60 26 0 0 1 4 9 8 1 2 8 0 2 2 0 3 11 8 12 2 0 0
0 0 0 3 10 44 56 60 53 61 78 74 63 61 125 144 97 115 131 104 80 83 30 0 0 0 0 0 0 6 7 4 1 0 0 1 0 12 12 19 6 1 0
0 0 0 0 0 0 5 14 17 16 26 30 35 44 44 53 71 66 100 112 115 92 51 1 0 0 0 0 1 2 3 7 10 2 10 8 9 19 20 14 0 0 0
25 12 0 0 0 0 0 0 5 4 3 0 0 0 2 27 32 46 72 79 106 76 58 5 1 7 5 0 0 0 25 8 7 0 8 4 11 8 4 0 0 0 0
22 43 36 6 0 0 0 0 0 0 0 0 0 0 3 28 25 21 44 54 59 33 7 7 39 42 7 0 5 1 0 13 10 1 1 3 3 3 0 3 1 0 0
137 93 83 42 32 20 0 0 0 0 0 0 0 0 1 25 36 38 51 24 18 21 6 42 108 15 2 0 5 7 4 0 4 0 0 0 0 0 3 3 0 0 0
145 183 165 114 86 45 46 41 19 13 8 22 70 109 82 19 34 73 74 48 34 39 10 7 6 0 0 0 13 16 0 0 0 0 0 0 4 0 0 0 0 0 0
213 162 132 131 107 86 95 80 63 51 60 73 88 103 65 61 50 53 89 99 76 58 63 50 12 37 7 1 11 1 3 0 0 0 0 0 0 0 0 0 0 0 0
200 171 131 94 75 88 104 132 103 88 72 60 43 82 57 70 59 84 87 44 74 94 51 54 107 57 18 0 0 0 0 0 0 2 2 0 1 0 0 0 0 0 0
222 180 138 112 69 90 95 111 113 98 74 78 48 44 61 90 73 151 117 115 81 107 53 24 62 33 2 1 1 0 0 0 0 0 0 0 0 0 0 0 0 0 0
243 236 180 146 90 80 77 84 97 75 70 42 33 48 106 108 88 77 81 100 125 78 44 39 7 7 6 1 0 0 0 0 0 0 0 0 0 0 0 0 0 0 0

GFSMA_con_mucape_063.txt.gz
CAPE
49 29 6 3 0 0 0 0 0 0 0 0 0 1 0 0 0 0 0 6 17 20 12 10 7 4 0 0 0 0 0 0 0 0 0 0 0 0 0 0 0 0 0
25 10 0 0 0 0 0 0 0 0 0 0 1 7 7 0 0 0 0 0 6 14 11 7 5 2 0 0 0 0 0 0 0 0 0 0 0 0 0 0 0 0 0
2 13 0 0 0 0 0 0 0 0 0 0 3 5 3 0 0 0 0 0 0 0 8 8 5 3 3 0 0 0 0 0 0 0 0 0 0 0 0 0 0 0 0
1 36 5 0 2 0 0 0 0 0 0 0 4 4 2 0 0 0 0 0 0 0 0 3 2 3 3 3 0 0 0 0 0 0 0 0 0 0 0 0 0 0 0
1 20 26 1 23 0 2 5 0 0 0 0 0 0 0 0 0 0 0 0 0 0 0 0 0 0 0 0 4 0 0 0 0 0 0 0 0 0 0 0 0 0 0
6 34 44 31 48 36 31 29 12 4 0 0 0 0 0 0 0 0 0 0 0 0 0 0 0 0 0 0 2 0 4 1 0 0 0 0 0 0 0 0 0 0 0
7 34 35 43 25 67 51 23 25 0 0 0 0 0 0 0 0 0 0 0 0 0 0 0 0 0 0 0 0 0 4 6 4 0 0 0 0 0 0 0 0 0 0
8 4 5 23 18 47 43 35 12 11 8 2 0 1 0 0 0 0 0 0 0 0 12 8 0 0 0 0 0 1 3 1 6 9 0 0 0 0 0 0 0 0 0
6 11 1 11 22 13 10 41 16 11 9 5 1 4 0 0 0 0 0 0 0 0 0 5 11 3 3 0 0 0 0 0 2 15 20 2 0 0 0 0 0 0 0
2 11 9 1 1 2 49 27 13 3 0 4 2 0 0 0 0 0 0 0 0 0 0 0 0 0 0 0 0 0 0 0 0 0 10 43 0 0 0 0 0 0 0
5 11 0 2 4 25 71 20 8 1 15 6 0 0 0 0 14 13 5 14 10 6 7 0 0 0 0 0 0 0 0 0 0 0 0 15 89 50 33 43 29 0 0
3 0 0 5 6 1 13 85 35 17 19 69 40 0 0 0 0 25 24 26 0 0 0 0 0 0 0 0 0 0 0 0 0 0 0 2 23 94 103 89 93 12 86
7 2 2 14 39 18 0 30 91 67 51 42 102 106 53 34 43 57 56 60 46 29 21 1 8 19 16 8 0 0 1 5 7 10 14 24 5 6 59 104 111 30 100
13 9 4 1 16 56 79 76 81 102 100 61 100 116 87 74 80 74 46 51 51 57 53 16 0 0 0 0 10 5 16 20 27 7 6 8 1 16 1 12 11 15 13
11 11 4 0 5 16 57 88 123 92 106 127 123 119 87 74 28 23 59 65 27 0 0 33 67 56 38 15 1 2 11 8 20 9 6 11 0 23 15 5 12 6 0
3 4 8 2 3 0 29 73 72 89 86 66 59 70 74 71 46 46 46 49 56 39 0 0 0 6 28 15 0 6 9 1 0 0 1 5 4 1 3 2 11 1 6
0 0 0 0 1 5 0 10 26 40 50 31 11 11 15 30 19 17 49 35 26 20 14 0 0 17 22 1 2 4 0 0 1 7 17 2 4 6 8 7 12 2 3
0 0 0 0 0 0 2 0 0 7 10 7 3 7 0 2 21 28 23 19 26 15 20 26 36 28 27 41 34 29 13 0 0 0 1 1 0 3 8 5 3 9 17
0 0 0 0 0 0 0 0 0 0 0 0 1 0 0 0 0 8 22 25 37 57 64 49 41 25 2 7 0 2 20 43 3 9 2 1 2 6 12 1 8 9 12
0 0 0 0 0 0 0 0 0 0 1 3 2 0 0 0 0 5 20 24 37 35 42 45 14 13 25 19 0 5 12 56 35 7 18 2 1 2 1 4 2 0 0
0 0 0 0 0 0 0 0 0 0 0 0 0 0 0 0 0 0 3 11 9 12 35 41 23 32 2 2 15 2 0 1 8 11 7 2 0 0 0 1 0 0 0
0 3 0 1 10 3 0 0 0 0 0 0 0 0 0 0 0 0 8 22 32 33 54 58 45 16 21 8 2 13 0 8 0 4 0 1 0 0 0 0 0 0 0
106 40 30 37 39 50 45 22 34 28 23 23 9 5 1 11 37 72 40 69 90 69 68 77 53 63 43 26 8 12 11 13 15 0 0 0 0 0 0 0 0 0 0
261 242 167 94 79 103 85 99 115 74 94 55 80 64 73 77 104 171 125 57 58 53 47 49 46 103 29 38 2 17 13 0 0 7 1 0 0 0 0 0 0 0 0
341 313 317 229 183 164 181 258 267 275 459 221 308 190 124 109 70 105 73 63 35 21 37 45 73 68 29 30 5 0 2 0 0 0 0 0 0 0 0 0 0 0 0
534 426 369 373 416 297 529 373 250 210 182 164 150 115 128 154 75 47 89 69 68 42 44 54 70 42 23 1 0 1 1 0 0 0 0 0 0 0 0 0 0 0 0

GFSMA_con_mucape_066.txt.gz
CAPE
43 24 24 5 2 0 0 0 0 0 0 0 0 0 0 0 0 0 0 11 15 16 10 12 8 5 5 7 0 0 0 0 0 0 0 0 0 0 0 0 0 0 0
23 15 1 0 0 0 0 0 0 0 0 0 0 0 0 0 0 0 0 0 9 18 17 7 6 4 4 2 2 0 0 0 0 0 0 0 0 0 0 0 0 0 0
17 17 0 0 1 0 0 0 0 0 0 0 0 0 0 0 0 0 0 0 0 3 12 12 3 3 1 0 0 0 0 0 0 0 0 0 0 0 0 0 0 0 0
15 17 2 0 0 0 0 0 0 0 0 0 0 0 0 0 0 0 0 0 0 0 0 5 8 9 1 0 0 0 0 0 0 0 0 0 0 0 0 0 0 0 0
49 28 7 0 0 0 0 0 0 0 0 0 0 0 2 0 0 0 0 0 0 0 0 0 0 0 4 2 1 0 0 0 2 0 0 0 0 0 0 0 0 0 0
49 28 18 0 0 0 0 0 0 0 0 0 5 2 4 3 0 0 0 0 0 0 0 0 0 0 0 0 4 1 1 4 0 1 0 0 0 0 0 0 0 0 0
13 32 26 8 2 0 0 1 0 0 0 2 11 21 5 2 0 0 0 0 0 0 0 0 0 0 0 0 0 0 5 6 3 0 0 0 0 0 0 0 0 0 0
3 28 17 12 19 2 2 7 3 1 10 16 11 28 22 2 0 0 0 0 0 0 0 0 0 0 0 0 0 4 3 11 17 15 0 0 0 0 0 0 0 0 0
10 8 22 10 36 49 2 10 17 15 0 17 18 8 1 0 7 0 0 0 0 0 0 2 6 7 2 1 0 2 0 0 24 128 61 13 0 0 0 0 0 0 0
12 15 23 46 32 59 50 45 45 6 0 21 34 28 16 4 0 0 0 0 0 0 5 21 21 12 6 6 0 2 0 0 0 7 107 104 35 8 0 0 0 0 0
10 10 21 46 41 78 55 40 14 20 0 14 8 0 4 3 0 0 0 0 0 0 0 0 0 0 2 1 0 0 0 0 2 0 2 78 152 81 35 28 35 7 9
4 6 23 51 45 10 13 9 0 32 13 28 0 0 0 0 0 11 18 21 22 19 7 0 0 0 0 0 0 0 0 0 0 0 4 7 69 169 205 121 118 85 50
6 13 6 26 19 14 12 29 21 27 32 8 8 0 0 0 0 0 0 0 0 0 3 0 0 0 0 0 0 1 7 2 0 0 0 12 24 46 103 179 173 118 89
14 7 4 2 6 4 2 0 88 51 17 6 31 43 59 27 16 33 34 37 35 26 20 6 7 0 0 14 18 14 6 0 0 0 0 0 6 10 5 12 23 81 119
10 12 12 6 7 3 14 7 9 48 65 34 15 20 47 46 83 83 64 71 34 0 0 0 0 0 4 18 25 38 38 31 20 16 10 5 5 3 1 13 9 12 13
0 13 17 17 11 5 12 43 46 28 15 16 44 62 52 36 47 55 63 59 29 0 0 0 0 0 1 9 4 15 26 32 31 36 30 16 11 5 1 19 9 8 18
0 0 6 8 11 7 1 1 17 29 29 24 19 36 42 38 49 43 43 52 39 18 0 2 0 0 0 0 0 1 21 33 40 24 39 5 4 4 11 2 0 4 6
0 0 0 0 0 0 0 0 0 0 6 19 25 21 3 12 26 24 16 14 16 6 14 0 0 0 0 0 0 7 13 10 9 38 40 30 3 6 5 10 2 6 3
0 0 0 0 0 0 0 0 0 0 0 0 2 1 0 0 0 1 1 0 0 0 0 2 0 1 0 0 0 12 9 21 4 10 8 22 15 14 9 3 3 1 12
4 0 0 0 0 0 0 0 0 0 0 0 0 0 0 0 0 0 0 2 3 1 0 0 1 1 7 3 9 12 13 14 16 28 5 13 15 12 40 11 7 2 1
0 2 2 4 0 0 1 1 0 0 0 0 0 0 0 0 0 0 1 5 9 12 10 7 10 13 22 12 11 29 31 29 31 12 6 11 4 2 10 8 1 0 0
80 43 0 3 13 0 0 2 1 0 0 0 0 0 1 0 0 10 15 0 0 0 7 23 16 11 12 1 3 14 23 24 17 7 0 22 3 0 8 10 4 1 1
313 207 186 139 90 9 0 0 0 0 0 0 0 0 0 0 0 2 7 11 18 15 31 47 24 20 20 107 84 29 27 15 7 25 18 8 12 3 5 0 0 0 0
186 194 235 294 221 230 268 155 44 7 0 0 0 0 0 15 34 38 40 58 44 22 18 35 78 58 63 38 59 25 45 58 6 7 2 6 0 0 0 0 0 0 1
161 155 259 308 278 311 332 313 283 235 116 47 46 36 66 80 80 97 124 75 50 45 52 51 58 41 40 40 37 29 26 28 5 2 0 0 1 0 0 0 0 0 0
150 279 259 241 272 309 345 399 327 312 222 302 341 247 84 90 227 103 147 153 131 132 59 43 24 9 18 2 13 13 0 0 3 0 0 0 0 0 0 0 0 0 0

GFSMA_con_mucape_069.txt.gz
CAPE
74 82 72 47 19 15 1 0 0 0 0 0 0 0 0 0 0 0 1 22 29 30 22 17 12 10 7 8 6 4 0 0 0 0 0 0 0 0 0 0 0 0 0
89 44 64 22 0 8 0 0 0 0 0 0 0 0 0 0 0 0 0 4 18 31 24 11 9 8 11 7 0 0 0 0 0 0 0 0 0 0 0 0 0 0 0
84 42 17 0 0 0 0 0 0 0 0 0 0 0 0 0 0 0 0 0 1 6 19 15 5 5 6 6 2 0 0 0 0 0 0 0 0 0 0 0 0 0 0
44 24 2 0 0 0 0 0 0 0 0 0 0 0 0 0 0 0 0 0 0 0 1 7 11 5 3 4 3 0 0 0 0 0 0 0 0 0 0 0 0 0 0
17 44 8 0 0 0 0 0 0 0 0 3 0 0 0 0 0 0 0 0 0 0 0 0 1 3 6 2 0 2 4 0 0 0 0 0 0 0 0 0 0 0 0
57 44 18 0 0 0 1 0 0 0 6 4 1 0 2 0 0 0 0 0 0 0 0 0 0 0 0 3 2 2 4 5 4 1 0 0 0 0 0 0 0 0 0
61 64 15 6 1 0 0 0 0 5 0 1 7 5 6 4 6 4 0 0 0 0 0 0 0 0 0 0 3 3 5 8 6 0 0 0 0 0 0 0 0 0 0
57 57 59 1 0 0 0 0 0 0 0 0 0 1 9 10 10 14 8 0 0 0 0 0 0 0 0 0 0 3 5 27 19 11 10 15 3 0 0 0 0 0 0
60 66 34 7 3 7 0 1 1 0 0 0 10 6 17 9 26 20 3 0 0 0 0 0 0 0 0 0 0 0 0 0 66 184 169 69 12 11 0 0 0 0 0
37 17 39 26 1 5 12 25 20 6 2 4 6 30 28 15 0 4 29 30 25 2 0 0 0 0 0 0 0 0 0 0 1 17 143 264 207 47 23 15 12 0 6
22 28 12 15 2 3 17 65 87 45 23 22 22 12 4 5 8 0 0 1 18 12 7 4 0 0 4 0 5 2 0 0 0 0 0 51 183 280 112 68 70 57 44
10 15 14 32 6 5 43 37 66 71 60 33 39 28 18 9 0 0 0 4 2 2 3 0 0 0 3 3 0 0 0 0 0 0 0 0 17 81 196 180 143 123 92
2 13 7 8 10 70 48 41 46 36 30 24 26 36 40 4 0 0 18 11 4 2 0 0 0 0 0 0 0 0 0 0 6 6 6 1 3 4 25 75 151 176 169
4 15 1 17 8 53 50 61 53 44 15 1 32 43 41 7 8 0 1 0 0 0 0 0 0 0 0 0 0 0 1 6 4 0 1 0 0 1 0 4 10 48 103
10 15 7 1 4 14 2 8 30 34 60 4 0 15 32 15 5 3 0 0 0 0 0 0 0 0 0 1 4 3 2 6 8 2 2 7 1 0 0 0 0 0 9
4 8 12 4 4 6 14 12 7 13 8 0 0 13 9 8 41 38 27 33 47 36 30 0 0 0 0 1 1 3 5 13 14 5 0 3 11 12 5 0 0 1 0
1 5 10 8 9 4 6 6 5 1 1 12 45 61 34 26 36 35 36 38 51 49 34 14 5 0 0 0 0 1 3 2 1 1 2 12 23 21 18 37 19 13 9
0 0 2 5 9 6 8 8 5 17 25 6 0 2 4 19 32 39 41 44 48 42 42 29 9 1 0 0 0 0 0 0 0 0 0 15 33 35 5 43 41 22 9
0 0 0 0 0 2 0 8 13 0 0 0 15 22 20 36 19 19 22 29 32 33 36 28 4 4 0 0 0 0 0 0 1 10 18 34 31 27 24 3 7 7 6
1 2 0 0 0 0 0 0 0 0 0 0 0 0 0 0 0 0 0 0 2 12 8 5 4 6 3 0 0 0 0 0 0 6 10 18 11 39 48 35 8 10 10
57 15 0 3 2 0 0 0 0 0 0 0 0 0 0 0 0 0 0 0 0 0 0 0 0 0 0 4 0 0 3 1 1 12 2 1 4 15 12 33 1 7 1
156 89 145 124 69 12 0 0 0 0 0 0 0 0 0 0 0 0 0 0 0 0 0 0 0 0 0 6 6 5 8 4 2 0 1 0 2 4 1 0 2 3 23
52 69 83 111 113 181 234 210 123 4 0 0 0 0 1 2 1 1 0 0 0 0 3 7 7 4 4 4 9 17 5 5 1 17 28 13 2 5 1 6 11 1 0
54 18 11 27 67 101 222 243 219 178 135 67 14 0 0 1 1 0 0 0 5 6 17 25 21 12 18 13 14 16 12 26 32 9 0 5 1 3 2 0 0 1 0
17 76 73 78 38 25 71 98 142 197 212 161 224 184 160 129 67 25 15 14 3 16 10 16 20 24 19 46 47 49 35 72 15 32 26 8 0 3 0 0 0 0 0
0 0 0 0 7 23 67 93 65 62 125 133 221 269 187 117 109 115 97 111 53 67 44 62 104 103 91 64 31 36 45 78 48 33 0 0 6 0 0 0 0 0 0

GFSMA_con_mucape_072.txt.gz
CAPE
39 10 56 55 61 30 0 0 3 0 1 0 0 0 0 0 0 0 3 24 31 31 13 14 19 18 18 14 10 10 7 4 0 0 0 0 0 0 0 0 0 0 0
51 43 46 43 62 16 0 0 1 0 0 0 0 0 0 0 0 0 0 7 17 25 28 9 20 17 18 13 7 7 0 0 0 0 0 0 0 0 0 0 0 0 0
51 95 48 43 60 43 0 0 0 0 0 0 0 0 0 0 0 0 0 0 8 14 21 23 19 12 12 9 7 7 0 0 0 0 0 0 0 0 0 0 0 0 0
101 99 41 54 30 79 0 0 0 0 0 0 0 0 0 0 0 0 0 0 0 2 8 17 20 23 15 10 7 6 2 0 0 0 0 0 0 0 0 0 0 0 0
103 76 35 70 60 50 10 0 0 0 0 0 0 0 0 0 0 0 0 0 0 0 0 7 7 11 18 13 8 6 3 2 0 0 0 0 0 0 0 0 0 0 0
56 77 22 82 58 2 16 0 0 0 0 2 0 0 0 0 0 0 0 0 0 0 0 0 0 0 3 11 6 6 9 6 2 2 1 0 0 0 0 0 0 0 0
46 50 79 83 19 0 0 0 0 0 0 0 0 6 8 10 0 0 0 0 0 0 0 0 0 0 0 0 7 3 6 10 10 9 0 0 0 0 0 0 0 0 0
17 51 66 67 0 0 0 0 0 0 1 7 12 17 2 1 2 7 3 0 0 0 0 0 0 0 0 0 0 1 5 12 15 7 15 21 15 0 0 0 0 0 0
44 56 52 43 0 0 0 3 0 1 0 12 23 8 1 1 0 4 23 37 18 0 0 0 0 0 0 0 0 0 0 0 60 181 172 67 22 6 1 0 0 0 0
36 38 42 14 21 5 0 0 0 0 4 0 1 18 9 0 0 11 24 41 28 18 19 20 8 9 3 0 0 0 0 0 0 18 160 300 271 117 40 0 1 1 0
54 39 13 26 34 1 3 0 0 0 15 6 0 9 16 11 10 0 0 0 8 44 44 56 66 31 15 6 7 0 0 0 0 0 0 60 223 324 311 128 59 31 17
9 47 35 8 7 12 2 1 0 2 59 37 7 37 40 46 50 26 0 0 0 2 21 61 57 42 25 4 0 0 2 0 0 0 0 0 16 99 193 328 305 155 78
10 0 19 20 15 5 5 1 1 0 40 54 57 54 67 57 63 1 3 0 0 11 18 31 35 48 39 17 7 4 9 8 0 0 0 2 6 1 23 71 162 298 260
1 3 14 8 19 12 16 3 0 4 42 48 71 80 66 65 78 53 0 0 0 0 12 1 2 1 1 0 12 6 4 12 17 15 12 13 5 2 6 6 8 39 96
0 13 25 10 25 25 16 10 0 16 0 19 34 39 40 29 88 71 7 12 0 0 0 0 0 0 0 2 15 5 3 7 11 18 18 16 17 13 8 1 9 17 14
0 13 26 27 41 39 9 22 1 26 15 45 28 42 22 0 35 35 19 14 10 2 0 0 0 1 16 23 22 16 16 12 15 11 10 15 18 13 8 2 6 13 16
0 3 11 35 39 23 14 0 18 16 9 14 38 6 24 0 0 0 6 11 14 14 4 0 0 0 7 11 10 9 13 15 16 10 4 1 0 0 0 0 0 12 11
0 0 5 5 18 25 16 14 29 32 36 29 9 1 0 2 1 0 0 2 13 17 34 18 0 3 13 16 14 11 9 0 0 0 0 0 0 0 0 1 5 1 13
0 0 0 2 11 14 4 0 8 10 14 22 1 0 0 4 1 10 23 27 30 36 45 43 26 24 23 20 15 17 9 0 2 0 0 0 0 0 0 0 4 16 13
0 0 0 0 0 0 0 0 0 0 0 1 2 0 0 0 0 0 0 0 0 6 10 24 24 15 9 6 9 2 0 0 0 0 0 0 0 0 0 0 2 11 18
81 97 17 1 0 0 0 0 0 0 0 0 0 0 0 0 0 0 0 0 0 0 0 0 0 0 0 0 0 0 0 0 0 0 0 1 0 3 7 7 14 16 6
49 162 87 91 162 162 87 24 0 0 0 0 0 0 0 0 0 0 0 0 1 0 0 0 0 0 0 0 0 0 0 0 0 0 0 0 0 0 1 3 2 27 0
25 27 23 32 35 49 64 62 63 69 104 105 36 15 1 0 0 2 6 9 11 15 15 8 4 0 1 2 3 4 2 2 1 1 5 0 3 10 2 8 2 0 0
2 6 16 4 3 8 0 4 16 21 38 28 60 79 114 113 81 50 29 11 7 14 8 10 14 12 9 9 12 12 38 49 13 11 6 11 2 0 0 11 1 4 0
0 0 0 1 4 6 2 2 2 9 16 6 44 45 62 46 67 122 143 167 83 132 151 118 39 23 3 5 7 20 31 50 28 10 5 34 29 4 20 2 3 1 2
0 0 0 0 0 0 0 0 0 0 2 5 5 5 8 16 31 97 182 153 179 89 59 65 69 85 107 2 2 22 49 94 82 4 1 3 10 0 0 0 0 0 0

GFSMA_con_mucape_075.txt.gz
CAPE
183 79 34 166 54 55 168 122 28 5 0 0 0 0 0 0 0 6 18 26 38 21 24 26 21 26 17 22 10 7 12 11 8 6 5 2 2 0 0 0 0 0 0
201 57 100 135 68 64 63 32 21 17 0 0 0 0 0 0 1 14 9 23 17 33 49 22 24 17 17 8 10 10 9 8 6 0 0 0 0 0 0 0 0 0 0
74 40 132 64 44 66 102 74 59 20 0 0 0 0 0 0 1 9 13 19 10 14 23 33 27 17 18 14 17 14 9 0 0 0 0 0 0 0 0 0 0 0 0
126 47 65 38 45 50 101 78 53 4 0 0 0 0 0 0 2 2 6 14 21 19 12 19 21 27 18 11 13 14 9 6 0 0 0 0 0 0 0 0 0 0 0
63 91 42 31 37 7 74 48 29 1 2 0 0 0 0 0 1 0 5 14 25 23 21 13 8 8 25 22 13 12 13 5 3 0 0 0 0 0 0 0 0 0 0
36 57 36 35 36 63 79 47 0 0 8 0 0 0 0 0 0 3 5 9 18 22 23 24 22 14 7 18 22 12 13 9 6 2 3 0 0 0 0 0 0 0 0
69 37 37 42 42 48 64 15 0 0 0 0 0 0 0 9 0 1 2 5 8 6 12 18 20 19 10 10 18 11 14 16 13 8 6 6 0 0 0 0 0 0 0
50 20 32 33 21 42 66 31 1 0 2 1 10 12 13 4 0 0 0 0 3 1 0 0 3 6 6 6 3 6 5 15 13 12 14 18 15 2 0 0 0 0 0
20 25 35 13 19 33 7 0 0 0 0 1 0 26 14 47 6 6 7 0 1 0 6 0 0 0 0 1 0 0 0 0 68 193 167 76 30 7 0 2 0 0 0
23 27 17 35 51 22 0 3 1 0 0 1 1 5 43 22 61 14 7 7 1 5 20 16 24 20 9 17 4 0 0 0 0 22 168 299 256 127 47 15 5 1 0
42 37 24 26 39 0 0 0 0 0 3 30 10 17 24 11 42 80 48 10 21 4 46 50 45 44 56 23 27 26 29 22 6 0 0 53 194 313 317 154 98 59 23
33 11 25 10 12 1 0 0 0 0 6 23 37 68 37 28 9 10 0 17 42 8 33 58 80 62 43 22 36 47 42 24 9 0 0 0 5 79 169 297 365 271 184
1 23 19 30 9 4 6 0 0 0 0 0 50 40 52 78 58 49 49 37 23 7 16 5 36 45 22 36 62 66 58 43 33 31 8 0 0 1 28 71 141 271 371
2 2 16 20 7 5 9 13 1 0 0 2 0 70 61 63 78 77 57 98 8 26 67 0 10 28 53 74 102 63 30 5 18 6 8 11 8 12 14 15 14 54 101
1 11 3 12 22 25 21 12 13 5 1 0 0 0 0 37 49 52 61 92 6 0 0 44 46 42 16 34 25 37 19 4 1 1 5 8 10 13 35 31 3 22 15
0 0 4 10 14 8 24 16 9 6 3 1 0 1 0 0 43 49 54 51 51 0 0 7 38 40 52 2 5 4 0 4 1 9 12 22 25 22 15 11 8 4 1
0 0 7 16 7 7 32 30 1 6 4 5 1 0 0 3 0 9 42 0 24 12 0 0 19 52 14 30 14 9 10 14 8 7 10 23 31 24 17 5 1 0 0
0 0 3 6 29 37 27 39 1 5 3 2 4 9 3 0 11 0 0 1 2 57 62 63 42 35 116 33 79 103 8 13 18 18 22 25 21 6 10 14 0 0 0
0 0 0 0 2 0 2 3 6 18 5 9 42 40 32 14 9 13 27 4 3 24 63 71 31 81 100 138 81 9 7 21 10 3 1 0 0 0 0 0 0 0 0
0 0 0 0 0 0 2 3 4 8 18 16 12 12 17 37 50 65 75 80 44 36 50 67 67 67 93 68 137 53 49 79 0 0 0 0 0 0 0 0 0 0 0
2 0 0 0 0 0 0 0 0 0 2 0 31 6 22 6 0 11 31 38 76 95 90 86 73 104 69 57 79 95 57 18 19 24 12 16 0 0 0 0 0 0 0
14 13 8 4 5 2 1 4 3 6 5 2 0 0 0 0 0 0 0 2 3 3 3 5 4 5 26 62 55 56 43 36 33 9 0 0 0 0 0 0 0 0 0
60 116 43 117 129 6 5 0 2 3 5 8 12 18 15 13 9 8 14 20 23 18 16 13 10 8 13 32 39 26 9 6 3 2 1 5 5 4 4 0 0 1 0
2 5 3 4 3 3 2 1 0 3 5 19 16 28 6 4 13 15 105 93 81 92 86 101 78 72 37 25 16 5 19 9 0 0 0 0 4 4 4 2 4 0 0
0 0 2 2 1 1 1 2 3 3 5 5 10 7 5 6 3 0 11 16 43 76 54 37 26 54 61 65 60 38 60 49 30 0 0 0 1 3 1 2 6 5 2
0 0 0 0 0 0 0 0 0 0 0 0 1 1 6 2 2 4 2 6 1 16 40 19 73 17 14 6 6 5 21 11 2 2 0 1 0 0 0 0 0 0 0

GFSMA_con_mucape_078.txt.gz
CAPE
424 328 334 233 98 137 117 590 350 291 250 225 173 100 23 19 14 6 28 26 47 48 31 23 20 17 22 20 20 14 9 8 8 7 5 8 7 6 6 2 0 1 1
333 184 146 243 109 49 89 345 246 286 237 209 177 69 22 6 6 10 18 29 18 49 51 39 33 25 25 25 19 12 6 9 8 9 9 7 3 0 0 0 0 0 0
319 125 105 158 90 44 71 234 244 201 181 165 136 67 7 3 3 9 18 29 17 19 48 58 42 24 22 21 14 9 6 7 8 9 7 0 0 0 0 0 0 0 0
258 200 115 78 45 51 57 185 172 161 154 162 124 37 16 12 3 10 18 47 25 14 18 33 40 40 29 17 11 10 9 6 6 6 0 0 0 0 0 0 0 0 0
188 217 135 117 28 40 50 145 173 192 150 153 120 59 48 27 9 1 31 56 28 23 23 15 24 27 36 32 12 10 10 9 7 4 0 0 0 0 0 0 0 0 0
91 75 161 28 33 26 6 125 194 173 180 165 54 76 76 53 32 21 31 26 27 18 24 35 25 21 13 28 24 10 13 16 9 6 5 2 0 0 0 0 0 0 0
27 96 48 43 15 17 20 43 172 175 150 150 46 70 54 23 33 17 26 21 12 16 23 31 25 14 1 5 21 10 11 19 13 10 9 5 3 0 0 0 0 0 0
90 3 40 12 34 15 23 97 169 154 148 134 96 81 35 40 27 27 33 40 17 6 11 18 19 14 10 4 1 5 11 17 16 16 12 17 14 9 0 0 0 0 0
30 27 32 50 21 12 7 75 150 166 110 124 124 48 57 40 29 35 19 22 14 17 5 6 5 3 2 1 0 0 0 0 48 143 147 82 27 20 3 0 0 0 0
35 26 29 35 14 24 33 54 90 163 147 112 119 66 74 43 44 79 77 60 24 16 23 23 9 15 24 28 11 0 0 0 1 15 142 262 255 157 64 23 11 3 0
8 14 5 47 11 12 90 161 118 138 117 109 85 123 123 109 118 77 72 74 70 23 47 87 42 86 88 80 93 55 11 2 1 0 17 84 169 289 303 206 139 81 43
11 17 39 38 22 9 51 76 26 38 80 81 73 72 104 107 108 108 84 117 113 113 78 87 159 210 167 135 75 54 58 47 14 5 1 11 31 66 114 211 342 285 189
24 14 23 10 33 43 38 48 22 20 32 64 116 121 131 143 122 105 89 75 83 133 115 140 143 137 118 206 162 72 65 53 38 13 10 13 3 0 7 43 90 163 295
43 49 23 10 8 11 9 7 0 1 2 25 91 128 150 134 132 122 120 122 10 74 53 15 29 97 131 127 122 79 94 52 47 41 35 11 0 0 0 0 0 8 38
8 21 1 7 17 4 2 0 6 0 1 0 2 1 66 97 178 138 153 118 108 66 11 79 64 73 94 96 100 175 150 86 35 6 10 10 5 0 0 1 7 10 10
30 34 0 6 2 20 1 2 8 0 0 0 3 2 0 0 81 79 83 87 112 85 20 28 35 75 94 61 65 112 122 83 50 18 7 11 10 10 2 4 11 9 2
0 3 0 12 8 3 3 7 2 2 0 9 10 8 4 4 0 0 17 15 22 71 9 18 23 15 74 170 123 136 96 106 98 10 10 11 10 9 2 3 0 4 0
5 0 0 0 5 7 0 10 1 8 11 0 1 7 3 4 0 0 0 0 0 0 0 0 0 0 27 67 225 297 178 113 156 40 15 5 0 0 7 3 0 3 5
7 0 0 0 3 9 12 7 18 34 35 18 5 5 10 3 4 9 5 0 0 13 2 2 18 108 177 169 197 258 284 382 194 17 0 0 0 0 0 0 1 0 0
28 3 0 0 0 6 11 39 53 64 51 44 79 81 68 100 100 118 137 102 81 103 117 130 124 94 133 99 185 192 225 345 339 143 6 1 0 0 0 0 0 0 0
26 33 35 28 33 1 2 3 19 38 40 39 61 51 68 62 47 72 136 154 155 168 221 165 92 83 113 144 168 231 200 240 353 449 412 409 275 118 4 0 0 0 0
14 15 17 14 10 0 0 0 0 0 2 7 9 7 9 13 12 9 12 15 18 27 75 74 85 45 3 9 89 100 71 69 54 211 93 49 7 3 0 0 0 0 0
32 30 7 7 9 5 3 2 5 7 29 74 38 11 18 23 19 12 22 46 36 29 25 28 20 15 14 7 3 2 0 8 27 13 8 13 1 8 2 4 2 0 0
25 48 33 33 38 64 42 43 17 40 33 19 7 19 28 45 39 100 123 144 114 57 62 73 38 53 52 60 60 48 48 32 2 5 2 22 0 0 1 8 5 4 5
0 0 1 3 3 2 2 3 2 2 2 2 1 1 2 3 4 4 5 27 24 13 6 12 19 27 19 24 11 17 31 22 8 5 0 0 0 0 0 0 0 0 0
0 0 0 0 0 0 0 0 0 0 0 0 0 0 0 0 0 3 2 5 4 5 9 9 11 10 10 8 9 8 4 1 9 12 0 5 1 0 0 0 0 0 0

GFSMA_con_mucape_081.txt.gz
CAPE
658 195 226 293 270 425 242 185 220 580 339 181 154 83 35 43 43 57 1 2 42 59 32 35 27 23 22 22 21 27 8 10 12 13 7 6 7 8 6 4 3 3 3
746 441 115 300 515 337 114 93 137 280 347 140 131 60 55 30 7 16 15 32 21 46 45 35 28 29 26 30 25 9 10 7 11 11 7 4 4 2 2 0 0 0 1
859 663 506 400 232 122 63 69 100 266 253 132 130 97 48 11 2 13 23 25 23 19 34 49 66 35 35 27 18 11 10 10 11 9 8 5 4 0 0 0 0 0 0
706 186 133 142 150 70 69 70 85 272 149 140 35 69 33 9 7 10 16 17 19 19 15 45 67 49 42 24 16 8 11 9 8 9 6 3 1 0 0 0 0 0 0
361 271 267 54 58 69 66 37 68 280 159 93 38 59 50 21 9 8 21 29 2 12 21 30 32 30 38 38 17 13 13 9 10 7 4 0 0 1 0 0 0 0 0
168 334 109 42 46 26 52 19 75 188 146 119 32 53 88 47 19 18 22 22 17 22 15 15 12 9 14 29 22 11 10 12 10 6 3 2 0 0 0 0 0 0 0
344 353 62 38 39 33 31 25 58 143 137 106 79 45 98 81 68 29 25 8 22 17 38 45 11 2 0 2 11 6 11 15 10 9 6 4 3 2 0 0 0 0 0
186 33 55 26 17 33 44 30 56 92 153 113 35 54 60 49 50 31 9 15 28 32 26 27 13 2 6 0 0 4 5 9 13 15 9 15 17 8 1 0 0 0 0
242 192 27 49 62 33 22 14 13 78 104 106 124 55 39 32 36 53 41 31 54 33 34 16 5 1 3 3 0 0 0 0 27 103 89 42 27 20 0 0 1 0 0
255 142 31 35 23 17 17 2 47 76 89 116 137 140 94 31 48 55 46 33 31 25 39 15 8 4 3 18 1 0 0 0 0 10 103 208 163 82 62 66 47 21 12
0 12 18 2 37 43 27 19 38 80 114 120 161 211 174 131 85 88 42 72 80 19 17 43 11 24 22 33 47 36 1 9 4 0 0 79 186 281 252 182 121 103 81
2 2 26 11 17 31 11 21 41 107 141 162 179 160 141 122 102 84 106 104 134 97 69 86 52 59 85 89 58 41 36 17 8 5 1 16 50 116 183 277 340 295 224
5 3 2 13 22 7 21 29 58 103 138 148 157 96 114 148 122 66 141 109 59 125 140 132 107 152 127 221 200 73 52 52 44 39 43 29 32 30 35 56 92 170 248
47 8 8 30 28 19 14 33 98 128 123 171 155 147 132 79 63 124 37 60 16 92 70 148 206 238 243 249 193 123 84 50 44 53 60 54 40 25 14 10 1 3 25
44 4 23 4 19 17 11 13 18 41 105 101 103 132 114 44 46 105 124 98 116 82 46 130 107 128 124 113 97 168 158 78 62 54 34 27 15 4 3 0 0 0 0
28 60 30 5 12 9 15 27 0 14 0 0 0 0 0 0 0 17 0 84 107 113 38 60 92 33 69 55 37 152 178 99 87 69 39 24 4 1 1 1 3 2 0
42 19 67 33 14 0 6 4 2 4 0 0 3 0 0 7 3 3 3 0 74 101 80 89 72 92 115 141 83 94 184 191 134 40 27 23 13 0 0 0 0 0 2
26 15 8 8 3 0 0 1 3 15 20 1 8 0 3 0 12 11 8 9 8 4 0 0 2 1 21 30 1 1 5 15 126 72 31 12 0 0 0 0 1 1 0
3 8 6 1 6 2 14 2 14 14 3 8 1 3 10 12 3 8 3 12 12 7 8 6 0 3 2 1 4 0 2 36 74 46 41 24 11 19 27 33 29 16 4
5 6 19 8 1 0 4 17 1 10 13 44 31 45 18 7 7 15 26 20 21 52 71 69 29 41 104 61 125 87 81 97 148 103 46 18 7 5 13 6 5 11 13
4 12 5 0 9 7 17 28 46 23 48 65 102 68 70 77 58 32 33 37 112 86 75 150 151 156 143 134 126 125 110 119 165 242 241 324 134 60 35 20 15 11 4
16 10 6 0 0 6 1 0 0 10 37 2 0 5 19 14 14 13 10 10 6 27 35 36 44 40 94 131 101 69 79 84 63 33 22 24 52 53 57 50 40 35 25
11 10 11 5 4 1 6 0 0 0 0 0 0 0 3 8 15 13 17 13 11 8 11 5 2 0 0 9 7 5 2 0 15 1 0 18 2 0 6 7 21 30 23
109 120 53 39 26 32 32 42 27 42 41 53 52 62 51 53 59 67 92 63 34 44 31 44 56 37 34 12 20 30 19 2 3 0 0 6 1 5 0 0 0 0 0
75 59 37 59 67 39 15 9 0 1 3 3 3 2 2 0 1 0 3 4 1 4 3 6 5 9 12 14 12 15 13 9 9 1 2 4 1 9 0 0 0 0 0
0 0 0 0 0 0 0 0 0 0 0 0 0 0 0 0 0 0 0 0 0 0 1 2 5 4 3 4 10 11 14 12 11 10 5 4 7 3 0 0 0 0 0

GFSMA_con_mucape_084.txt.gz
CAPE
624 629 334 128 163 195 214 173 163 201 176 153 205 180 25 68 37 23 3 2 0 19 30 28 33 17 22 22 16 9 12 5 7 17 12 8 15 8 10 8 5 0 0
690 558 479 328 186 217 206 122 124 122 96 77 87 46 22 46 17 6 0 0 0 30 43 29 18 6 18 22 25 13 13 12 2 8 7 6 12 13 12 0 0 0 1
603 284 192 231 121 188 176 74 78 74 88 94 55 56 43 23 12 0 0 0 2 18 30 57 57 29 20 36 20 16 2 4 9 9 7 5 4 0 0 0 0 0 0
589 352 147 165 271 146 67 41 40 75 83 70 56 27 8 4 0 1 8 0 0 6 14 36 50 57 54 32 5 8 9 12 10 7 10 8 3 0 0 0 0 0 0
447 369 248 229 80 48 56 42 45 70 70 54 35 21 10 0 0 11 2 0 0 2 7 18 27 38 52 42 17 10 10 8 7 8 8 5 2 1 0 0 0 0 0
376 344 127 88 44 40 29 45 41 25 43 22 22 32 27 1 0 5 15 0 0 0 0 2 11 14 19 37 27 10 5 5 7 6 5 4 1 0 0 0 0 0 0
321 146 102 58 10 31 39 41 40 39 49 28 7 34 34 25 9 10 26 11 0 0 0 0 0 0 0 18 24 8 5 6 5 3 2 2 2 1 0 0 0 0 0
229 112 70 42 19 6 27 25 11 43 24 46 0 13 10 23 27 25 17 5 15 9 5 1 1 0 0 0 0 7 4 5 6 5 5 12 11 7 0 0 0 0 0
72 138 99 93 83 20 14 19 4 23 0 41 27 0 0 0 13 30 10 12 25 15 3 17 7 0 0 0 0 0 0 0 18 53 36 8 3 2 0 0 0 0 0
131 142 31 24 27 29 26 31 4 14 43 3 44 21 20 10 0 8 13 16 13 10 10 13 4 7 14 5 0 0 0 0 0 15 89 119 82 51 42 47 32 41 25
124 133 86 17 11 26 39 42 34 23 28 7 0 39 48 75 17 9 6 0 9 10 4 0 10 2 0 0 0 0 0 0 0 0 16 91 196 233 169 155 169 145 127
0 23 15 12 15 1 28 42 23 21 24 39 47 55 72 86 81 38 16 25 8 1 0 0 0 0 0 0 2 4 0 0 0 0 0 12 69 149 223 298 307 273 252
0 9 5 5 8 1 8 35 4 9 28 5 29 67 81 94 85 84 24 38 37 39 28 5 0 0 0 14 0 0 0 0 8 11 11 6 7 21 55 121 214 318 387
2 11 0 2 13 2 9 31 30 14 17 11 38 76 86 94 76 64 47 27 18 43 66 52 47 43 27 21 25 71 65 48 44 45 48 39 16 17 26 42 50 75 92
0 63 1 1 10 23 20 25 22 13 15 21 35 68 93 110 84 57 61 38 0 0 0 16 78 55 53 48 44 79 87 72 71 59 51 45 37 38 32 32 30 23 13
0 6 7 21 11 14 12 5 15 37 27 43 54 67 52 57 62 60 39 3 4 5 0 1 0 10 47 57 48 45 36 39 50 44 34 23 29 32 24 16 13 13 4
29 14 5 10 0 5 17 1 19 30 0 0 47 55 50 16 0 0 0 0 0 0 0 0 1 2 2 25 26 30 31 52 36 38 43 34 35 17 16 26 25 26 11
14 17 6 12 11 0 7 6 1 5 2 27 11 0 0 8 11 8 1 2 59 6 1 0 14 8 6 9 10 4 18 18 14 7 19 31 31 45 50 55 44 47 55
12 2 5 6 1 11 4 4 4 11 5 13 28 3 14 8 2 17 7 13 16 21 19 14 8 2 2 0 7 5 0 0 0 0 1 0 7 22 64 28 18 29 27
4 8 6 9 6 0 10 5 7 14 24 6 10 16 22 3 27 3 6 14 8 7 20 18 12 0 0 0 11 5 0 4 1 13 12 39 38 32 29 20 21 16 17
6 3 2 4 7 10 0 2 15 25 8 23 3 29 30 31 27 20 13 9 31 15 14 18 11 9 7 22 38 14 19 29 29 65 52 61 70 73 83 76 55 46 90
7 3 5 3 9 1 4 6 10 11 6 25 23 20 42 38 41 41 7 0 0 29 30 23 34 32 7 15 10 9 12 24 7 0 21 17 28 34 22 47 33 31 52
3 6 5 3 6 3 0 0 0 1 8 15 34 45 10 15 5 7 17 4 11 7 9 8 15 16 27 15 7 16 16 24 16 14 5 24 10 10 3 3 3 4 3
10 14 0 1 5 3 2 3 5 2 5 4 4 10 13 19 28 47 25 31 19 25 19 14 7 10 10 16 14 22 21 22 14 13 18 16 17 11 5 3 4 4 0
8 22 42 42 48 28 50 58 40 32 23 19 16 15 19 24 15 4 14 6 1 0 1 2 1 1 1 1 0 0 1 1 1 3 1 0 0 0 0 0 0 0 0
0 3 0 2 0 8 8 1 0 0 0 0 0 0 0 0 0 0 0 0 0 0 0 0 0 0 0 2 0 0 0 0 0 0 0 0 0 0 0 0 0 0 0

GFSMA_con_mucape_087.txt.gz
CAPE
716 511 381 258 119 68 88 90 58 146 178 145 119 86 41 19 51 38 31 20 13 32 14 20 29 23 26 21 7 7 13 18 5 17 14 13 9 15 16 13 10 3 3
829 630 418 244 115 121 162 107 85 138 194 171 113 113 34 11 21 12 11 1 0 1 10 18 14 27 20 24 24 5 12 20 6 19 13 10 17 16 13 5 1 0 0
915 655 452 231 133 157 153 129 89 95 70 80 67 72 42 3 3 0 0 0 0 0 4 36 41 28 13 31 21 8 7 11 4 16 10 8 7 5 0 0 0 0 0
876 748 619 346 185 190 130 107 72 57 34 42 37 36 27 2 1 2 0 0 0 0 2 29 43 45 41 32 5 10 7 7 10 11 11 8 5 0 0 0 0 0 0
761 571 478 432 244 113 76 62 36 29 41 55 50 35 28 5 7 2 0 0 0 0 0 12 20 25 44 48 13 4 6 9 11 8 8 5 3 1 0 0 0 0 0
710 550 386 283 193 92 84 39 11 20 49 26 84 26 32 17 3 5 0 0 0 0 0 6 11 16 18 25 22 12 12 16 13 6 8 6 3 1 0 0 0 0 0
594 434 323 167 82 48 63 51 35 31 39 23 30 20 11 2 1 0 0 3 0 0 0 0 3 0 2 7 9 10 10 12 10 10 9 6 4 3 0 0 0 1 0
431 374 254 158 103 74 29 34 8 26 37 27 0 18 0 0 17 7 9 3 0 0 0 0 0 0 0 0 0 4 10 18 18 12 9 13 11 3 0 0 0 0 0
286 253 194 107 80 39 6 18 27 26 28 35 27 0 0 0 16 22 13 9 9 4 0 0 0 0 0 0 0 0 0 0 23 33 19 13 9 5 0 0 0 0 0
220 232 137 66 64 46 40 39 28 11 10 0 26 0 0 4 0 8 8 8 8 9 6 0 0 0 0 0 0 0 0 0 0 17 100 84 54 56 50 53 46 37 29
99 80 111 74 116 78 61 46 13 15 30 2 0 0 0 20 0 0 0 0 0 0 0 0 0 0 0 0 0 0 0 0 0 0 17 139 217 161 143 149 157 150 143
123 110 114 79 61 52 46 53 24 18 8 14 22 0 0 0 0 2 2 0 0 0 0 0 0 0 0 0 1 11 7 4 0 0 0 10 81 205 294 278 256 280 280
184 315 37 60 66 68 55 13 37 14 10 0 1 0 39 60 77 51 26 9 5 0 0 3 0 0 0 0 0 0 0 7 7 6 0 0 0 18 82 184 302 418 436
32 7 0 2 14 9 20 12 34 37 23 21 2 35 33 60 65 41 40 42 19 21 12 16 22 23 7 16 10 0 0 0 0 8 8 19 33 48 38 29 36 84 166
19 20 16 11 7 15 6 6 32 38 25 18 14 29 41 47 52 66 56 47 29 1 0 24 40 30 40 54 45 31 48 59 52 38 55 66 78 79 66 59 61 53 43
11 8 30 33 11 15 25 19 23 27 7 15 0 10 42 44 57 57 68 48 31 23 0 1 3 3 32 46 30 52 29 46 60 94 95 107 84 69 52 36 43 53 55
15 4 13 12 12 6 26 27 13 12 22 6 0 6 30 47 64 64 60 47 37 8 1 14 36 3 0 4 4 18 29 49 82 85 65 47 37 31 32 30 39 52 73
17 11 13 18 21 1 11 22 12 36 15 23 13 43 10 58 60 37 0 0 2 3 1 9 1 3 11 18 14 9 8 7 19 23 32 28 49 62 36 11 16 17 40
13 26 22 2 10 9 4 10 11 19 3 0 0 6 23 0 0 0 7 6 4 4 16 4 14 5 8 3 23 7 4 6 13 15 24 14 20 21 18 16 13 5 12
11 15 20 21 5 1 11 3 19 9 5 15 11 15 7 0 4 16 17 5 5 24 4 6 10 11 0 13 8 11 17 26 15 18 32 14 7 4 9 21 25 21 15
3 10 1 5 8 0 12 10 2 21 20 12 6 13 4 14 16 3 33 7 6 4 5 1 0 0 5 14 23 21 15 22 50 8 12 3 5 13 3 5 2 16 14
5 5 2 3 8 7 0 10 13 18 23 9 26 17 13 49 1 30 21 31 21 15 15 16 0 11 1 9 13 28 7 0 26 2 0 0 2 0 3 6 4 2 2
9 5 5 6 4 5 1 2 1 14 14 13 8 18 7 1 4 16 0 2 12 12 11 6 1 0 21 4 1 9 8 0 0 9 8 16 15 20 6 15 1 6 5
6 7 7 4 4 3 4 3 3 1 17 30 15 24 17 10 13 12 7 7 9 18 14 1 17 3 10 10 9 12 8 8 2 0 1 0 0 1 0 0 0 0 0
3 0 2 1 0 3 5 3 14 22 21 17 21 5 6 15 13 12 9 16 5 1 1 11 3 2 0 0 0 0 0 0 0 0 0 0 0 0 0 0 0 0 0
37 50 8 7 15 9 39 8 21 19 22 21 31 16 14 7 1 0 0 0 0 0 0 0 0 0 0 0 0 0 0 0 0 0 0 0 0 0 0 0 0 0 0

GFSMA_con_mucape_090.txt.gz
CAPE
751 577 632 471 346 242 168 53 3 89 114 99 67 107 38 52 127 124 176 224 243 402 469 324 173 67 31 38 37 29 20 17 15 16 20 20 21 24 18 13 19 13 10
730 583 614 604 509 388 262 62 21 43 150 132 74 89 36 20 118 91 116 107 30 73 229 241 136 60 36 24 30 29 25 27 18 23 25 22 13 20 19 13 7 5 6
891 790 613 571 456 496 262 178 26 64 110 111 67 46 50 32 68 45 44 13 0 0 3 43 41 40 26 24 26 17 20 19 21 17 19 6 16 14 12 9 3 1 3
948 889 720 593 487 362 235 275 75 34 76 98 64 33 37 46 42 21 2 0 0 0 0 12 32 49 39 38 27 19 9 5 12 16 17 10 10 10 5 1 1 0 2
1010 936 743 657 517 348 611 601 62 52 84 81 53 52 19 32 11 0 0 0 0 0 0 7 24 26 40 46 14 25 23 15 11 9 4 13 13 11 6 1 0 1 0
983 910 705 612 542 377 222 257 60 68 57 58 106 60 8 6 3 0 0 0 0 0 0 0 12 12 24 39 45 19 19 11 13 14 13 13 13 12 5 1 1 1 1
925 852 634 667 582 416 234 158 69 63 37 56 86 40 9 5 1 0 0 0 0 0 0 0 1 0 7 19 24 16 19 26 16 16 17 4 8 16 6 2 1 1 1
795 817 678 526 444 375 405 144 70 6 23 56 39 22 0 0 6 0 0 0 0 0 0 0 0 0 0 0 0 14 21 23 20 16 17 26 24 9 4 3 2 2 1
764 712 575 490 314 471 467 85 65 19 25 24 8 13 19 17 0 0 0 0 0 0 0 0 0 0 0 0 0 0 0 3 27 24 26 21 17 13 4 1 1 1 1
552 482 428 277 122 279 105 119 96 59 30 14 0 24 1 0 0 0 0 0 0 0 0 0 0 0 0 0 0 0 0 0 0 15 90 70 37 27 15 14 4 0 3
316 339 273 231 128 81 76 118 137 11 39 21 17 10 0 11 0 0 0 0 3 1 0 0 0 0 0 0 0 0 0 0 0 0 7 121 149 138 126 114 105 101 99
171 214 288 257 272 206 88 129 72 36 45 5 7 1 0 0 0 0 0 0 0 0 0 0 0 0 0 0 0 0 0 2 9 4 0 12 90 205 230 220 243 264 259
190 138 128 110 49 32 136 88 97 69 48 24 3 2 1 4 10 0 0 0 0 0 0 0 0 0 0 0 0 0 0 10 18 9 6 3 0 21 105 210 325 382 375
194 149 100 96 174 133 49 42 66 67 21 2 8 6 9 8 35 0 0 0 1 3 0 0 0 0 0 0 0 4 11 22 21 13 9 0 0 0 14 28 53 137 228
251 44 36 103 86 74 31 70 43 15 12 4 36 9 0 13 57 1 47 51 57 36 6 15 21 20 14 10 18 8 7 33 26 14 0 8 24 36 52 65 67 48 39
162 41 9 23 31 33 12 16 19 13 11 35 19 4 8 29 26 44 39 47 63 54 0 23 43 33 25 16 29 34 51 62 55 50 52 47 58 61 66 49 44 55 43
47 0 14 51 40 31 8 27 5 12 13 32 7 9 16 7 27 36 33 44 44 42 0 17 12 24 6 5 6 11 6 20 29 19 36 65 44 46 44 51 32 32 31
38 46 12 16 14 9 20 23 16 8 19 22 5 2 17 19 19 12 44 5 0 3 0 1 1 0 0 4 7 16 16 20 12 29 5 3 1 5 15 8 11 13 5
49 67 13 17 23 21 9 15 22 10 7 13 10 0 15 9 25 10 0 0 0 0 1 1 0 14 32 4 1 12 9 18 22 2 7 10 19 29 23 7 28 24 22
48 35 19 15 6 17 12 7 7 0 36 45 21 25 4 37 23 29 52 42 1 0 1 4 78 28 5 0 5 13 21 4 12 8 33 21 27 14 27 12 9 13 24
8 5 30 10 9 2 5 10 5 3 1 26 33 6 26 0 10 31 31 0 4 15 1 12 8 6 14 11 8 23 18 36 43 17 19 7 8 2 2 1 1 0 2
14 8 7 6 8 0 5 17 19 14 10 12 11 0 17 11 0 0 14 32 11 6 15 7 18 13 11 2 25 0 15 11 8 33 4 5 0 5 12 9 6 13 13
9 7 7 7 25 6 5 12 8 5 30 7 2 8 3 7 3 17 7 10 8 12 7 1 3 13 0 7 7 0 6 9 7 11 9 8 7 17 15 3 12 2 0
5 11 8 7 5 8 26 0 4 10 3 13 8 16 4 10 2 1 8 10 20 10 3 11 18 3 6 2 2 11 12 12 14 11 7 5 0 0 0 0 0 0 0
0 8 13 8 14 16 18 26 23 23 11 12 12 16 2 1 15 6 3 8 8 3 3 12 11 8 14 16 6 5 0 0 0 0 0 0 0 0 0 0 0 0 0
3 2 0 5 16 11 15 20 25 27 20 17 25 15 24 12 18 16 6 5 9 8 3 0 0 0 0 0 0 0 0 0 0 0 0 0 0 0 0 0 0 0 0

GFSMA_con_mucape_093.txt.gz
CAPE
1601 896 1049 996 768 635 321 161 216 220 70 53 95 83 78 142 145 162 203 210 288 666 655 535 468 321 189 107 88 38 18 14 12 9 15 20 24 17 25 21 21 18 18
1170 1162 796 968 497 287 144 144 156 90 28 61 96 88 60 89 144 152 167 137 185 269 453 485 383 240 119 73 82 39 30 25 27 8 19 25 26 3 24 22 18 12 9
950 713 566 859 641 290 310 262 173 71 92 55 80 83 56 71 134 138 158 184 182 126 210 346 342 311 111 32 38 41 38 42 29 28 7 18 1 16 15 15 12 11 10
750 654 577 421 396 416 406 305 213 12 65 113 52 87 51 51 81 110 122 136 46 0 26 88 98 157 88 35 36 23 30 34 36 26 18 16 11 8 21 15 12 6 8
1028 842 734 503 665 781 716 586 229 94 11 21 58 54 46 47 50 86 92 45 0 0 0 0 3 10 44 60 39 25 31 19 19 32 25 18 14 19 18 11 6 4 5
1125 933 829 638 522 574 426 429 262 73 5 4 44 52 40 30 47 46 62 1 0 0 0 0 7 17 35 47 44 33 22 17 21 20 20 10 4 20 15 12 7 5 4
1130 995 901 627 515 520 484 371 213 147 10 38 60 39 39 44 37 48 20 2 0 0 0 0 0 3 19 21 39 34 43 40 29 9 17 8 7 2 16 12 7 6 6
1112 1011 888 639 1025 465 500 395 253 294 57 63 44 67 33 12 42 30 8 1 2 0 0 0 0 0 2 14 14 34 36 42 34 11 8 10 13 6 12 10 8 6 6
1008 928 832 412 404 503 606 671 431 182 33 60 55 25 40 3 0 13 2 6 2 0 0 0 0 0 0 0 0 0 1 16 33 20 27 25 22 15 8 9 9 6 5
1012 927 703 650 573 413 502 592 507 298 71 37 39 33 34 32 0 0 1 1 0 0 0 0 0 0 0 0 0 0 0 0 0 15 20 25 25 15 13 11 7 4 5
835 786 690 610 543 394 392 711 593 141 54 51 15 27 25 22 8 0 0 0 0 0 0 0 0 0 0 0 0 0 0 0 0 0 6 74 95 104 103 96 65 44 23
629 625 570 358 313 288 81 387 337 174 209 58 59 23 14 0 30 19 0 0 0 0 0 0 0 0 0 0 0 0 0 0 0 0 0 0 82 182 193 190 195 142 161
334 527 300 281 371 142 97 263 187 205 157 59 40 10 11 6 5 3 0 0 0 0 0 0 0 0 0 0 0 0 0 0 0 0 0 0 1 23 103 207 257 275 280
159 196 537 311 157 180 234 184 195 125 73 77 49 18 10 15 3 1 0 0 0 9 2 0 0 0 1 0 0 0 0 0 0 0 0 2 5 6 10 5 56 129 206
350 422 204 149 115 224 243 169 236 102 100 91 56 31 11 5 14 19 19 0 0 0 0 12 2 9 0 0 0 0 0 0 0 1 8 13 21 18 14 0 4 26 43
209 237 182 94 75 178 195 85 42 37 70 37 8 19 1 6 8 16 5 28 14 17 36 21 15 18 10 4 9 9 12 24 23 43 56 51 45 44 27 28 34 19 26
189 126 48 34 34 22 32 39 27 18 7 5 5 10 12 28 2 27 13 0 1 45 32 26 39 45 38 38 34 29 13 5 14 26 27 15 17 20 27 40 34 29 32
78 29 1 13 37 25 14 22 3 6 26 14 25 26 35 5 0 5 37 13 31 34 17 0 37 28 55 44 38 10 25 20 3 5 9 7 9 5 10 8 4 8 8
64 33 14 26 24 31 32 41 20 16 9 26 17 8 5 13 7 12 54 33 33 0 0 0 0 0 18 24 12 0 5 1 5 6 1 1 4 5 4 4 38 40 27
53 21 11 8 9 27 47 29 16 2 28 28 31 37 11 6 8 24 36 27 12 0 0 0 0 0 0 0 4 27 9 9 10 14 4 4 6 9 24 34 29 16 18
41 40 19 4 18 13 24 5 6 3 1 5 27 21 9 29 14 3 0 4 8 36 5 0 0 0 2 0 2 9 6 3 9 1 6 14 25 38 25 11 3 2 2
10 9 9 10 27 12 7 9 9 6 6 1 0 25 16 22 0 1 40 8 26 10 28 2 17 6 0 4 9 2 8 9 21 3 4 0 10 5 21 3 1 11 11
0 9 6 5 11 3 9 4 22 27 19 23 5 8 8 3 9 19 26 20 25 28 7 29 16 25 23 3 1 0 0 0 5 7 12 25 8 16 7 3 12 14 2
2 0 0 1 4 10 31 17 20 11 15 1 5 22 10 23 7 4 3 26 21 22 10 11 3 7 1 7 10 11 3 5 8 3 1 11 12 11 4 2 0 0 0
0 0 1 0 6 32 38 14 21 17 32 14 3 8 7 14 4 2 10 13 9 6 21 13 3 10 11 9 14 4 4 12 21 13 18 0 0 0 0 0 0 0 0
11 12 5 0 0 11 25 18 32 31 26 24 15 21 34 13 10 2 2 15 18 7 0 0 10 11 2 1 0 0 0 0 0 0 0 0 0 0 0 0 0 0 0

GFSMA_con_mucape_096.txt.gz
CAPE
1995 1687 1491 1394 1203 956 828 478 312 102 98 96 114 36 26 22 41 68 233 370 385 817 1033 797 693 540 442 342 234 79 44 16 13 4 15 22 12 18 21 8 4 15 7
2155 2120 1026 887 949 900 767 508 259 184 74 93 85 40 26 45 38 76 210 247 221 262 636 689 525 370 367 234 188 91 36 27 20 18 17 32 32 16 4 2 7 21 7
1538 1656 1464 1096 747 1021 616 482 47 91 158 102 59 70 48 82 42 111 198 172 223 168 219 400 456 370 315 220 124 68 41 48 32 17 19 23 16 3 6 4 20 10 12
1150 1083 1136 1201 926 1074 416 82 77 176 101 66 20 53 81 75 51 58 139 190 190 187 196 217 208 241 255 109 71 49 45 44 39 36 20 17 13 16 20 5 14 14 12
989 800 871 533 662 961 319 141 188 170 146 10 7 48 32 44 50 50 87 145 163 116 62 86 74 42 63 101 64 42 36 42 43 34 31 19 17 12 8 7 20 9 8
965 785 835 716 746 700 615 229 281 165 148 19 32 21 23 23 66 60 44 63 85 36 3 1 24 0 3 48 48 29 33 30 31 45 34 31 18 16 25 16 11 8 6
978 1100 1022 830 853 520 924 784 318 40 125 97 53 38 59 44 43 42 73 43 55 7 0 0 0 0 2 23 47 42 45 44 40 39 41 30 21 27 4 16 10 7 5
1216 1248 1123 854 742 803 791 643 425 105 148 63 24 10 23 44 46 23 27 57 37 1 0 0 0 0 0 11 24 50 47 55 44 43 35 39 26 6 6 17 12 9 6
1487 1320 1167 915 937 414 592 460 478 447 129 98 32 33 18 8 6 11 16 45 22 5 0 0 0 0 0 0 13 16 19 31 56 48 39 14 10 12 11 14 11 7 6
1416 1382 1181 1112 863 207 505 186 570 328 359 108 45 41 13 1 24 3 20 41 4 2 5 0 0 0 0 0 0 0 0 0 13 43 44 35 32 31 25 16 9 6 5
1015 1332 1067 797 700 229 382 247 254 419 405 159 208 83 69 37 13 20 0 0 10 7 12 1 0 0 0 0 0 0 0 0 0 0 18 35 41 36 32 25 14 2 1
753 1047 1167 725 477 494 503 271 251 545 541 203 183 185 46 30 2 11 4 1 0 1 9 7 0 0 0 0 0 0 0 0 0 0 0 0 26 72 96 104 103 55 63
598 1219 1173 864 708 538 435 226 237 130 279 263 138 68 91 52 12 18 9 5 0 0 0 1 0 0 0 0 0 0 0 0 0 0 0 0 0 0 74 136 166 201 216
400 915 706 572 568 228 149 179 78 54 163 183 91 134 153 75 30 20 2 0 2 0 0 0 0 0 0 0 0 0 0 0 0 0 0 0 0 0 0 2 61 161 195
384 520 662 569 255 154 138 170 93 106 263 54 55 109 85 74 40 4 9 4 0 0 0 0 14 0 1 4 1 4 1 4 8 1 1 0 0 0 3 2 0 0 0
259 218 112 398 320 204 181 173 207 199 77 125 91 41 64 39 21 2 4 16 0 0 0 0 10 6 0 3 6 8 10 16 0 0 0 0 0 0 0 3 5 11 20
138 357 438 317 304 204 88 128 108 126 76 29 57 60 51 49 12 7 9 15 1 0 0 0 27 36 32 29 27 22 35 44 42 28 15 16 16 11 12 8 11 7 12
124 150 198 248 118 45 24 10 49 18 5 8 5 17 26 12 32 2 24 46 6 1 0 0 67 36 60 58 48 28 45 34 31 7 9 13 6 6 7 0 3 9 14
129 120 81 54 52 28 1 23 15 13 21 13 1 2 5 6 4 7 5 16 0 2 0 22 0 23 42 35 62 16 11 2 5 3 12 9 12 7 9 5 8 4 5
89 56 55 83 13 12 11 22 19 21 13 0 1 22 16 3 0 6 4 0 2 5 42 0 0 0 0 15 0 2 2 2 0 4 3 7 9 12 10 10 12 0 3
58 45 49 11 6 5 1 12 5 2 35 6 47 14 25 6 36 8 4 16 0 14 1 97 0 0 3 6 0 0 0 0 3 3 0 1 0 4 9 8 9 28 17
58 30 39 7 3 6 12 12 0 2 4 1 0 21 25 35 8 35 13 0 18 2 6 0 0 0 0 0 0 0 0 0 0 3 7 0 2 0 2 7 12 1 6
29 19 24 36 0 5 9 22 5 0 9 12 2 1 0 21 15 0 15 14 19 17 21 0 0 0 0 1 0 0 16 15 10 2 5 4 1 0 6 18 5 1 2
16 6 14 27 22 6 3 25 16 11 9 7 11 18 6 0 16 20 15 0 21 16 7 9 13 3 9 24 16 1 15 15 9 1 0 6 1 0 1 5 10 4 7
27 4 0 0 2 4 1 7 14 18 28 7 6 1 4 19 0 2 2 3 18 14 3 17 19 7 7 10 11 6 10 0 11 13 1 2 0 12 2 1 0 0 0
7 7 1 0 0 0 0 9 17 15 27 12 14 29 15 3 0 3 6 13 13 1 3 5 0 16 17 13 2 4 2 7 0 15 0 0 0 0 0 0 0 0 0

GFSMA_con_mucape_099.txt.gz
CAPE
2262 1534 1520 1465 1599 1298 1103 1100 1009 1010 892 851 930 659 327 238 60 116 205 144 151 631 1141 979 809 693 569 392 404 224 67 34 10 0 7 14 12 17 14 22 16 19 19
2190 2019 2297 1924 1484 1261 1186 1004 816 623 693 635 457 286 291 213 17 40 106 199 138 350 752 1262 889 798 596 391 308 228 83 47 21 10 14 22 16 23 18 21 23 9 7
2179 1939 2155 2042 1758 1229 1675 1153 711 503 343 616 584 202 258 47 22 11 67 79 112 176 312 366 503 649 496 371 224 162 97 74 54 28 18 24 27 20 19 17 25 22 6
2056 2062 1993 1827 1162 800 1359 1250 743 516 274 106 90 111 425 49 14 45 35 30 708 465 142 178 232 390 375 325 223 119 51 45 30 24 24 27 21 15 22 23 18 16 14
1790 1953 1680 1200 822 599 731 1245 617 337 68 163 170 211 130 65 35 63 35 76 356 430 539 132 160 161 183 252 240 80 41 28 22 33 23 16 18 20 21 16 17 15 12
1573 1739 1317 908 737 563 405 728 231 77 119 129 142 141 127 93 66 62 33 11 80 327 342 282 297 191 89 72 139 81 35 31 31 39 24 26 25 22 29 20 14 7 0
1187 1257 912 908 694 497 388 700 235 134 128 88 75 70 43 10 36 61 37 59 46 75 87 225 240 196 79 15 44 81 34 37 44 36 33 26 35 19 28 22 17 11 5
952 1086 1043 809 792 612 659 326 410 133 194 71 29 50 17 18 19 45 45 46 36 53 55 21 54 65 74 29 27 36 47 61 41 35 44 51 38 31 28 13 17 10 6
1019 1370 1133 937 871 683 533 408 512 291 217 80 40 98 31 17 19 29 18 26 19 61 51 15 0 0 2 14 23 24 20 34 60 52 68 48 37 25 22 17 20 15 10
939 951 1016 863 959 752 603 697 161 80 322 84 55 97 30 20 25 3 28 27 29 46 49 14 3 0 1 8 6 15 10 25 31 57 68 45 34 31 25 19 17 12 9
1035 433 1 353 790 824 738 302 110 259 201 198 72 67 31 54 36 11 6 25 30 12 48 22 16 0 0 0 10 8 0 0 6 25 58 41 38 31 29 22 18 11 11
619 98 57 346 849 962 757 393 208 202 186 368 167 148 21 46 87 17 30 34 17 5 24 3 8 1 6 0 0 0 0 0 0 0 9 22 30 33 32 33 39 22 18
181 135 331 636 881 854 797 383 148 246 147 292 192 107 79 127 67 64 49 22 10 16 11 12 19 12 0 4 0 0 0 0 0 0 0 0 0 14 34 55 77 125 159
538 361 439 709 830 566 347 510 166 258 171 153 281 121 137 127 133 113 83 40 29 17 5 0 22 13 26 11 10 0 0 0 0 0 0 0 0 0 0 0 15 85 140
388 388 477 649 651 598 543 399 279 210 166 254 65 146 198 232 56 106 91 27 42 22 1 12 7 0 46 18 2 0 0 0 0 3 0 0 0 0 0 0 0 0 0
316 236 442 558 908 704 513 220 99 181 107 100 59 79 157 29 32 25 55 53 26 5 3 0 0 0 53 36 28 11 8 11 16 22 18 8 0 0 0 0 0 0 3
25 168 359 874 579 480 251 181 157 144 117 113 162 109 21 25 32 49 39 35 10 0 0 0 0 1 83 82 39 37 32 19 6 9 3 0 0 0 0 0 1 1 16
51 151 214 226 220 267 301 229 150 206 124 126 54 55 26 41 34 24 33 23 2 0 0 0 0 0 51 43 54 64 33 6 5 3 29 29 14 20 36 27 10 5 10
19 95 155 189 141 144 209 76 69 39 16 19 19 37 15 17 0 21 17 3 8 0 3 0 0 0 49 61 69 20 19 8 19 45 34 8 9 14 13 5 2 4 6
30 71 70 69 64 81 62 32 23 9 20 33 2 8 0 0 8 0 5 9 9 11 0 0 0 0 65 39 40 42 37 22 11 22 11 4 1 4 17 15 14 5 14
45 69 40 41 38 41 31 84 41 18 11 7 12 11 2 1 0 11 1 1 0 0 0 0 0 0 0 7 0 0 18 13 1 5 2 1 0 0 2 2 7 15 10
107 12 32 30 42 8 3 2 4 11 4 9 8 3 0 3 0 3 3 2 25 0 0 0 0 0 1 0 0 0 0 0 0 1 0 0 2 0 6 2 3 5 6
86 60 19 12 38 4 4 10 7 2 2 3 3 0 0 0 20 20 9 14 11 23 18 11 0 0 0 0 0 13 0 0 0 0 2 0 2 0 4 10 5 4 6
34 100 7 2 11 0 0 14 18 6 6 1 4 4 10 0 0 0 4 6 5 11 11 19 15 9 0 0 0 0 0 0 0 0 2 0 2 2 4 7 3 3 2
13 42 9 17 5 6 6 0 25 11 5 0 3 4 10 0 3 5 6 0 0 8 30 21 7 27 18 14 6 0 9 5 0 7 17 12 2 7 0 0 0 1 1
20 50 19 4 0 0 0 0 0 1 12 10 1 6 6 9 15 9 3 0 0 2 0 0 0 7 9 10 5 18 5 1 13 0 5 0 0 0 0 0 1 0 0

GFSMA_con_mucape_102.txt.gz
CAPE
2618 2488 2243 2399 2466 2158 2270 2050 1936 1781 1786 1524 1397 1235 1076 1141 801 565 272 68 75 335 663 837 1144 964 708 747 624 529 317 189 95 18 14 19 10 11 12 15 20 21 20
2553 2249 2322 2238 2175 2158 2218 2058 1920 1879 1766 1498 1325 1141 1111 918 814 529 216 156 37 129 429 1057 1257 992 772 605 378 326 258 125 68 12 5 13 15 15 14 16 22 18 20
2377 2268 1862 1834 2090 2053 2091 1925 1851 1722 1451 1210 1207 1055 962 763 612 570 201 113 127 68 187 363 691 942 835 592 299 310 202 100 56 33 19 14 18 21 23 18 25 17 19
2206 2215 1766 1827 1627 1706 1418 1242 1225 1089 924 1198 1109 1134 887 771 511 499 41 9 77 148 60 58 224 354 520 562 350 235 114 112 93 58 26 19 27 21 21 20 21 26 12
2178 2157 1836 1647 1569 1713 1613 1449 1267 1223 978 1110 943 743 655 527 443 178 11 13 24 68 88 138 126 129 159 298 403 247 153 43 27 30 25 22 19 24 22 24 25 9 9
2164 2036 1879 1702 1429 2102 1425 1156 1158 906 1146 573 307 170 298 485 317 111 30 46 53 37 117 151 57 43 107 171 236 237 96 29 28 30 19 18 24 28 22 26 15 24 14
2123 1880 1729 1546 1748 1751 1143 1018 730 809 664 579 319 123 155 208 126 75 42 49 26 36 104 551 427 292 157 110 112 248 82 33 32 36 25 34 35 34 30 23 22 16 8
2169 1831 1490 1294 1538 1228 1070 1113 758 436 643 468 135 104 135 96 135 91 82 68 88 16 37 150 249 190 246 171 106 59 99 54 38 47 54 45 34 28 24 22 23 17 12
1961 1702 1311 1273 1332 1464 1182 1141 775 492 265 241 211 209 94 148 28 30 72 106 34 24 21 53 48 125 119 122 40 19 17 17 48 64 76 64 44 35 21 26 24 17 13
1620 1438 1070 1078 1067 1218 955 1081 810 701 498 246 230 414 358 64 125 26 12 125 179 49 38 39 50 28 42 66 31 18 9 6 17 43 71 74 46 39 31 31 29 27 21
1504 1348 929 855 267 792 866 1040 1074 1132 908 382 240 237 277 204 312 100 21 14 8 24 77 17 36 28 14 2 20 14 5 11 14 22 54 60 43 38 35 29 28 25 20
1405 1314 1176 1180 809 661 705 589 800 1036 862 619 340 231 348 203 243 92 94 29 20 28 30 22 34 28 8 8 1 3 2 0 5 18 27 39 35 32 30 34 31 26 20
1433 1370 1312 912 661 633 711 575 649 1124 861 607 348 180 121 102 156 41 121 42 33 19 17 7 6 22 12 0 5 1 0 0 0 0 3 17 18 19 23 29 44 43 61
1789 1739 973 964 409 357 580 656 655 1220 972 926 382 248 145 90 384 34 55 62 62 33 17 6 0 8 3 3 2 2 0 0 0 0 0 0 2 8 13 11 20 30 63
1904 1107 589 413 270 302 625 527 1027 1049 537 290 335 423 132 157 192 91 156 25 38 25 33 0 0 0 2 9 9 11 38 1 0 0 0 0 0 0 0 0 0 4 9
1210 965 642 636 463 394 602 623 766 436 220 312 388 200 240 360 141 95 198 198 54 30 33 6 0 9 2 1 3 97 67 16 5 0 0 0 0 0 0 0 0 0 0
981 705 506 325 303 404 350 432 409 449 430 174 382 245 283 154 289 162 99 343 242 160 5 3 8 10 9 3 26 100 122 102 11 14 11 17 2 0 0 0 0 0 0
643 632 503 175 151 295 388 390 498 305 367 230 181 89 109 334 101 42 107 47 24 10 31 25 0 10 0 4 45 103 151 62 15 26 39 42 16 6 0 0 0 0 0
377 212 211 168 134 336 395 156 267 265 271 205 232 184 96 78 46 24 28 18 20 30 32 0 2 0 0 3 59 28 65 58 42 38 57 56 40 21 17 24 24 32 40
166 184 221 157 106 68 152 179 130 119 136 150 250 122 134 77 37 10 13 37 10 7 33 0 0 2 0 0 13 46 61 56 57 50 60 64 74 68 57 37 12 29 23
154 102 60 105 139 118 96 50 96 65 82 29 12 70 3 1 14 1 9 0 0 0 0 3 0 0 0 0 0 20 41 39 39 50 46 55 59 6 13 2 0 2 0
99 140 89 49 43 44 33 38 94 89 33 21 7 0 3 9 1 2 2 17 6 15 0 1 0 0 0 0 0 0 4 36 10 5 35 4 1 0 1 1 2 1 0
51 62 49 8 28 46 36 34 12 20 54 18 3 10 8 4 0 1 1 6 1 12 2 1 1 0 0 0 0 1 4 35 0 1 2 0 4 0 1 0 3 3 11
0 0 8 58 79 51 5 7 15 17 20 12 0 2 12 0 0 2 0 3 0 2 5 7 0 0 0 0 22 0 0 10 6 0 2 0 0 0 1 1 3 1 6
0 0 44 16 37 42 0 4 12 16 18 13 5 3 4 12 5 0 0 0 0 0 3 3 11 3 28 15 23 3 0 0 0 0 0 0 0 0 0 0 1 3 2
4 0 9 16 36 8 1 0 9 22 13 9 19 9 9 11 12 3 1 0 0 0 0 0 0 16 5 4 7 2 0 0 0 0 0 0 0 3 0 4 1 5 1

GFSMA_con_mucape_105.txt.gz
CAPE
2927 2407 2379 2201 2545 2062 2613 2401 2123 2147 2117 1856 1855 1651 1585 1599 1456 743 831 194 113 161 843 735 780 707 763 956 759 617 534 508 429 180 226 200 159 112 52 25 18 13 1
2871 2347 2351 2205 1965 2256 2840 2380 2332 2205 2215 2079 1954 1690 1657 1586 1327 1033 733 331 37 32 435 813 860 700 976 845 656 528 479 427 295 115 57 9 3 5 12 12 12 21 14
3029 3008 2437 2531 2052 2223 2718 2600 2657 2404 2137 1803 1782 1873 1486 1631 1320 1041 1026 549 94 31 158 237 343 189 1084 1148 704 423 301 188 156 65 24 3 0 4 7 10 20 21 19
2955 3130 2459 2259 2285 2189 2436 2466 2397 2392 2035 1965 1599 1454 1653 1457 1199 1035 965 720 180 208 151 175 159 86 731 1084 713 360 217 161 94 45 22 11 4 7 13 18 23 17 23
2432 2934 2619 2237 2411 2140 2266 2068 2126 2075 2015 1752 1523 1395 1411 1247 1196 830 619 442 152 152 315 139 61 46 48 482 597 436 241 95 68 41 29 16 21 16 22 19 5 22 22
2838 2932 2324 2359 2242 1806 2132 1653 1517 1611 1557 1623 1262 930 1035 1077 923 583 460 215 90 135 188 173 40 82 77 170 247 552 290 95 33 28 16 22 32 25 24 17 4 6 3
2983 2687 2383 2443 2197 1651 2033 1542 1632 1760 1283 1337 1059 591 736 723 834 536 297 145 17 3 118 106 28 56 110 131 171 359 202 175 46 29 29 27 37 34 30 24 5 3 2
2678 2183 2308 2283 2157 1791 2059 1542 1828 1270 1217 975 892 741 339 141 175 389 206 53 30 8 38 86 93 95 107 226 162 134 178 198 64 32 36 34 36 36 33 31 9 4 21
2723 2176 2345 2381 2012 1849 1734 1505 1415 1046 932 810 816 495 388 144 51 127 229 139 51 10 9 29 31 145 222 382 89 58 29 25 50 56 40 48 39 36 36 33 13 6 29
2248 2326 2493 2120 1780 1810 1652 1509 1380 1224 1240 691 709 714 763 443 218 12 17 166 106 51 21 35 46 51 70 260 143 65 33 14 18 44 45 47 37 39 33 29 30 11 38
2300 2347 2437 1943 1610 1694 1491 1311 1237 1359 1450 985 641 441 919 658 394 250 7 16 59 95 64 48 26 21 48 33 107 90 6 7 14 30 49 48 58 43 40 37 33 25 36
2138 2064 1929 1732 1588 1802 1397 1280 1427 1672 1675 1362 1139 879 773 443 246 337 322 100 34 66 60 40 45 21 24 40 32 3 7 0 5 17 26 43 41 40 41 44 40 34 33
1923 1646 1641 1692 1633 1459 722 244 573 1215 1555 1399 1205 1086 533 900 531 332 407 281 12 5 18 38 43 62 38 59 28 27 4 3 0 13 15 32 30 25 29 33 30 29 25
2021 1443 1597 1856 1377 1273 912 1103 1442 1557 1340 1147 1195 1163 875 702 562 353 267 312 53 0 4 6 22 18 12 7 27 17 4 0 1 0 9 15 24 14 13 12 12 16 27
1928 1506 1493 1377 1514 1512 1086 1094 815 981 1220 1430 1617 971 580 290 344 236 219 71 40 17 12 46 20 2 1 6 12 36 2 3 1 0 0 0 10 11 10 5 2 4 10
2040 1868 1648 1275 1148 812 970 875 435 762 993 1477 1471 1198 773 413 275 154 128 53 66 13 13 23 6 3 1 3 11 2 1 12 0 0 0 0 0 0 0 1 2 2 2
1723 1481 1340 1168 792 706 276 256 436 269 661 930 589 451 305 291 381 233 92 227 31 25 17 90 22 32 4 0 1 1 4 1 2 3 0 0 0 0 0 0 0 0 0
1409 1167 904 1023 858 626 600 130 64 205 431 606 513 334 200 236 329 238 224 22 21 185 108 18 15 0 2 5 8 6 2 4 0 18 6 1 2 5 14 11 1 0 0
904 808 849 815 862 729 633 392 46 21 359 635 552 327 155 260 140 142 165 61 109 95 87 56 9 9 8 27 2 2 0 0 1 37 53 32 26 30 22 35 18 11 10
498 553 583 622 454 482 573 651 334 253 294 371 394 330 295 164 85 108 30 33 55 46 10 39 31 2 13 7 0 0 0 0 2 47 69 68 64 59 65 65 47 32 24
100 211 376 418 193 217 244 179 157 112 98 121 89 90 97 108 45 51 37 26 29 35 4 23 0 13 1 0 1 0 0 0 14 53 80 70 79 77 70 67 53 25 31
25 29 119 107 207 75 61 37 37 208 132 40 22 33 188 5 15 12 6 5 10 4 1 0 1 1 4 0 0 2 2 0 0 19 45 60 65 68 67 49 18 38 2
10 49 71 98 33 31 63 65 41 18 38 54 57 39 40 68 15 7 14 1 2 4 8 0 0 0 1 0 0 0 0 0 0 0 29 39 70 64 51 17 49 12 2
0 23 17 57 93 45 39 28 18 3 20 83 16 32 5 12 12 4 0 0 4 2 0 5 0 0 0 0 0 0 0 0 0 0 23 34 24 17 18 5 6 0 0
0 0 0 13 46 12 4 9 30 10 19 15 39 24 25 25 8 1 2 0 0 0 0 7 9 0 10 9 0 0 0 0 0 0 0 1 3 0 0 0 2 3 3
0 0 0 0 0 0 0 0 0 28 30 21 11 8 3 9 5 14 4 1 0 0 0 0 0 14 11 0 24 18 2 0 0 0 0 0 0 0 0 1 1 3 1

GFSMA_con_mucape_108.txt.gz
CAPE
2490 2418 2254 2175 2348 2265 2182 1978 1948 1951 1855 1677 1653 1541 1527 1358 1260 953 731 465 297 184 1177 1034 1139 868 691 563 891 912 689 687 627 498 350 258 178 71 9 0 0 1 9
2272 2269 2287 1800 2283 2010 2009 2000 1969 1886 1850 1658 1606 1524 1440 1386 1279 848 571 514 267 91 256 1208 902 764 657 533 694 760 623 581 544 446 308 196 142 63 0 3 8 2 12
2645 2525 2367 2076 1784 2058 1633 2022 2049 2027 1838 1769 1627 1553 1396 1394 1318 1030 757 422 308 89 0 348 715 311 231 615 684 524 515 440 395 337 216 121 55 2 7 6 6 3 13
2144 2329 2338 1936 2187 1923 2032 2206 2013 2023 1904 1811 1609 1615 1461 1393 1336 923 757 526 292 216 94 4 99 343 345 328 491 678 598 402 278 193 82 18 18 0 4 9 10 6 4
1966 2205 2279 2140 2001 1827 1879 2094 1948 1911 1928 1660 1591 1343 1300 1283 1153 937 705 510 283 192 148 174 58 150 110 95 206 754 491 370 265 157 50 30 24 10 5 15 12 8 24
2060 2128 2254 2163 2079 1899 1824 2177 1923 1909 1792 1706 1465 1447 1219 1115 920 705 652 513 254 98 67 185 59 18 5 0 3 509 532 303 193 77 37 38 25 26 28 20 1 17 29
2123 2007 2105 2071 1914 1850 1772 2003 1723 1627 1426 1311 1229 1150 963 807 727 628 404 248 126 54 19 101 25 21 0 0 0 85 606 402 192 71 69 39 18 28 26 15 12 6 10
1781 2036 2113 2032 1792 1555 1507 1778 1402 1276 1179 1126 939 860 727 361 355 575 443 109 168 18 2 0 2 42 46 26 33 91 390 445 385 242 118 35 15 34 28 29 25 18 19
1712 1845 2089 2033 1659 1103 512 1514 1351 1156 1055 1029 1474 544 238 80 55 138 337 157 8 3 5 1 0 62 64 70 76 74 78 148 206 228 150 40 25 29 27 30 20 26 28
1478 1822 1908 1847 1507 1129 1127 855 1267 1238 855 833 896 1001 572 385 140 62 146 209 16 6 4 1 10 8 55 113 88 70 76 94 92 95 81 38 48 26 33 29 26 31 28
1349 1654 1700 1740 1778 1295 856 1265 1149 1058 880 638 926 941 634 713 628 283 57 21 55 2 1 0 0 1 21 47 83 53 96 107 73 24 28 47 44 33 40 40 45 33 23
508 1282 1584 1926 1741 1489 1337 1130 411 914 1037 883 881 853 599 633 721 415 242 90 4 6 7 0 2 2 24 25 85 77 65 53 58 7 27 35 18 34 49 27 28 30 23
217 598 1380 1900 1835 1617 1263 1084 933 398 795 971 938 782 693 503 565 398 256 134 23 2 30 22 3 6 14 27 46 48 74 40 28 9 24 36 12 23 38 39 35 41 36
121 725 1030 1567 1536 1520 1514 1240 998 814 747 864 734 846 752 618 608 445 342 175 48 2 0 0 13 14 19 6 4 55 42 56 31 19 3 5 19 18 18 19 24 22 22
6 1140 1486 1431 1341 1375 1392 1116 896 757 298 535 146 288 632 565 479 563 305 212 62 3 1 0 5 13 16 26 24 37 57 50 31 20 7 5 6 22 19 19 8 7 4
709 1220 1358 1333 1263 1284 1252 1195 847 777 1068 1081 880 737 566 555 431 382 267 186 89 34 0 0 3 6 31 33 48 25 33 42 40 22 5 3 3 29 26 16 8 2 4
831 1191 1350 1310 1159 1210 1123 1140 946 852 586 716 697 502 545 477 271 251 246 205 102 59 42 2 7 0 10 29 34 15 30 7 21 9 4 3 26 30 34 21 8 3 7
490 853 1125 1097 1102 1047 975 801 930 751 500 407 289 396 370 444 234 194 188 108 56 32 10 15 11 12 17 9 14 11 12 29 31 17 14 1 2 0 1 3 6 1 7
172 405 484 745 659 538 739 847 514 295 148 69 174 143 233 243 207 193 354 215 82 71 20 8 15 32 23 25 14 6 10 18 7 18 3 4 3 5 26 15 13 4 0
438 391 403 360 480 414 427 473 323 53 62 49 161 195 241 162 82 129 139 65 51 66 63 53 50 27 26 43 23 16 21 1 7 1 3 4 5 44 44 32 25 16 10
132 153 304 264 292 185 285 304 291 89 55 27 156 134 171 61 95 221 148 84 21 21 58 62 45 18 29 7 1 2 17 4 1 1 0 19 20 66 65 54 52 56 65
2 0 50 176 189 188 167 215 279 225 105 26 7 61 56 96 68 21 52 50 29 21 20 32 49 13 10 1 6 3 0 13 0 0 11 9 1 40 75 83 88 90 106
2 0 1 1 41 40 125 153 191 184 196 92 55 108 117 90 17 4 17 3 4 12 21 16 20 4 6 2 12 1 3 0 3 0 0 0 0 0 73 94 45 80 92
0 0 0 0 13 11 142 128 89 97 100 124 113 78 33 4 4 94 6 3 7 14 1 2 1 6 0 4 3 9 4 7 0 0 9 0 0 6 29 57 34 44 49
0 0 0 4 0 0 14 43 104 109 66 77 23 16 14 47 5 0 8 20 0 0 0 2 5 2 2 0 1 0 0 0 0 0 3 24 0 0 22 37 20 28 29
0 0 0 0 0 0 0 42 49 40 39 14 35 21 3 9 8 14 15 24 7 2 11 15 5 0 0 0 0 0 1 2 0 0 0 0 0 0 0 0 14 5 8

GFSMA_con_mucape_111.txt.gz
CAPE
1903 1912 2306 2261 2111 1914 1876 1739 1662 1558 1411 1489 1485 1264 1308 1258 1213 1102 1115 795 635 1027 1590 1384 1278 1393 987 504 351 555 917 711 722 552 351 229 163 103 39 0 0 0 2
1780 1968 2123 2109 2238 2101 1945 1795 1737 1631 1600 1530 1434 1454 1308 1168 1127 1120 951 678 458 379 443 1154 1566 1305 1009 546 434 352 755 542 634 515 327 179 101 43 1 0 0 0 6
2363 1985 2175 2096 2046 2134 2002 1870 1643 1679 1801 1696 1571 1394 1229 1133 1065 1057 823 614 376 373 112 396 1176 1245 1054 848 423 140 596 466 514 442 300 176 72 16 0 0 0 0 3
2167 2445 2037 2014 1878 1947 1980 1890 1651 1602 1619 1596 1529 1389 1257 1137 1114 1042 851 659 381 259 92 36 631 723 672 717 624 450 147 348 435 388 260 171 81 22 0 0 0 4 5
1890 1922 2151 2249 2020 1845 1826 1724 1526 1535 1652 1518 1461 1326 1298 1224 1167 1085 877 614 451 336 226 58 3 263 180 195 507 427 70 408 418 406 239 148 74 26 2 0 5 10 16
1967 1750 1569 1866 2068 1962 1693 1734 1575 1550 1487 1583 1434 1286 1117 1104 1115 1025 821 631 464 295 110 10 0 0 112 157 360 169 48 475 441 312 202 140 40 24 24 11 12 15 8
1488 1875 1862 1642 1573 1649 1774 1552 1672 1773 1654 1627 1449 1324 1128 955 1004 857 728 675 536 233 140 0 0 0 48 154 59 64 71 585 572 320 209 94 20 22 20 22 24 0 27
441 1273 1711 1712 1770 1539 1631 1569 1227 1416 1545 1652 1363 1184 987 1021 868 794 689 633 470 254 37 0 0 0 1 18 28 25 29 38 634 452 232 69 15 14 15 19 21 23 33
180 528 1125 1560 1764 1669 1332 1221 1229 818 789 1217 1104 759 644 503 367 435 582 454 657 145 14 0 0 1 6 1 40 18 8 6 131 338 221 65 19 19 15 23 25 33 35
0 324 573 919 1404 1596 1291 1020 908 258 25 241 511 681 381 116 93 58 220 562 408 385 43 0 0 0 8 20 10 17 14 0 61 144 170 88 45 42 29 24 27 32 41
0 0 47 540 766 1206 1094 1199 842 410 233 422 14 465 615 344 307 134 55 189 339 232 79 0 0 2 2 15 50 52 99 114 96 104 90 67 78 43 23 30 32 35 46
0 0 0 12 636 701 840 911 1017 614 497 462 473 576 511 462 520 450 295 280 159 151 173 65 0 3 0 1 40 69 21 55 46 65 95 69 25 39 29 25 37 44 50
0 0 0 0 239 705 590 580 760 755 678 666 753 559 490 457 450 326 514 395 238 54 36 83 0 0 0 2 56 65 98 57 74 75 96 63 20 9 16 16 29 51 49
0 0 0 1 40 515 722 684 712 548 584 680 704 646 597 508 422 509 564 432 236 149 88 157 2 0 2 7 2 33 70 73 51 69 79 58 19 11 7 9 7 27 37
43 6 0 0 0 0 84 474 546 544 682 582 602 655 507 517 525 565 547 431 211 74 20 4 0 46 9 12 12 1 18 55 59 50 59 50 14 2 0 5 2 6 19
50 52 10 0 46 242 37 470 620 720 791 578 223 164 396 569 553 545 456 374 312 141 41 10 17 9 34 8 12 20 16 30 41 64 25 39 14 11 10 0 5 3 7
4 222 158 424 427 553 408 477 710 887 887 558 329 106 56 252 387 384 357 314 213 187 98 63 73 13 18 9 2 15 22 8 23 45 78 37 18 11 7 6 0 9 10
0 1 129 261 556 464 377 544 637 834 706 553 422 225 147 232 200 336 280 228 167 159 135 47 44 33 13 95 12 12 6 11 17 24 28 22 15 8 4 1 0 22 14
0 0 3 9 97 323 457 755 801 741 692 647 433 301 402 172 239 191 167 110 105 134 102 56 31 29 15 13 20 18 3 5 25 33 9 7 10 1 8 5 30 48 32
0 1 40 25 64 54 136 257 475 565 576 619 300 160 48 45 79 165 117 109 102 116 132 27 37 58 41 25 43 28 4 9 4 6 5 19 5 7 5 1 4 63 68
0 5 20 53 76 74 5 58 203 307 366 333 173 54 34 34 119 94 88 99 77 47 60 54 86 37 101 35 12 16 13 17 3 5 0 19 9 16 6 0 9 5 67
1 8 3 2 23 65 40 14 0 100 283 247 28 38 167 111 110 97 63 81 62 87 88 65 37 19 2 23 15 30 43 13 6 15 17 5 5 0 4 1 33 69 82
2 3 4 1 0 16 17 0 33 85 130 149 42 45 17 119 75 72 87 71 68 30 49 58 18 58 5 13 28 16 6 1 11 19 32 1 2 0 3 11 0 69 86
0 3 0 0 0 0 2 0 0 102 74 97 66 35 29 30 51 65 53 83 31 4 18 5 3 18 15 58 17 20 5 7 17 0 18 0 0 0 2 1 25 36 82
0 0 0 0 0 0 0 0 2 1 13 80 104 48 21 50 69 71 24 13 6 7 3 10 9 1 3 6 4 8 0 3 0 0 8 0 0 0 2 0 5 3 1
0 0 0 0 0 0 0 0 0 0 13 63 39 11 22 4 1 33 17 0 0 17 15 9 0 1 9 9 3 0 0 0 6 0 1 0 0 2 2 0 0 1 8

GFSMA_con_mucape_114.txt.gz
CAPE
1756 1992 2058 1910 1748 1527 1493 1429 1570 1650 1603 1501 1412 1315 1203 1188 1102 942 914 829 756 1020 1500 1755 1834 1756 1621 1264 771 450 530 585 590 836 585 369 252 150 75 22 5 0 3
1443 1577 2059 2219 2031 1788 1536 1515 1429 1451 1462 1452 1318 1330 1294 1252 1217 1121 1035 1055 799 626 988 1393 1752 1682 1832 1293 645 523 346 683 596 804 526 279 161 92 30 2 0 0 3
1527 1392 1385 1863 2211 2091 1988 1742 1603 1518 1420 1390 1254 1192 1334 1215 1236 1138 1109 1074 961 595 527 664 1199 1497 1689 1437 750 476 297 395 557 638 464 265 140 55 12 0 0 0 4
1668 1542 1569 1405 1640 2172 2070 2019 1898 1687 1526 1464 1332 1387 1286 1348 1276 1100 986 918 834 666 464 350 271 934 1301 1300 984 530 540 237 255 607 435 255 144 38 5 0 0 0 0
1091 1407 1342 1203 1466 1595 1955 1999 1853 1831 1413 1381 1410 1518 1510 1344 1114 1026 957 885 771 646 468 332 220 601 893 797 1066 728 332 43 292 597 412 265 144 60 17 0 0 0 0
777 1105 1206 1195 1193 1082 1199 1510 1773 1754 1548 1265 1214 1406 1523 1294 1162 1070 1003 945 771 610 445 401 302 179 573 487 397 706 602 310 191 496 319 267 165 73 21 3 0 0 4
964 843 852 1133 1332 1083 1094 1075 1071 1323 1443 1337 1323 1443 1416 1287 1072 999 1053 967 744 588 491 333 237 120 5 250 149 360 639 657 561 589 354 209 140 67 26 19 16 2 0
306 752 733 515 874 1253 1317 1028 946 812 894 927 932 969 888 974 913 898 924 862 721 577 453 233 168 45 3 0 66 137 450 727 679 753 374 158 96 75 28 26 32 23 19
0 0 43 450 245 573 1169 1307 1006 805 601 603 790 690 269 393 625 734 779 669 609 576 390 217 97 18 0 0 12 92 78 39 68 421 360 140 89 43 19 24 25 18 27
0 0 0 0 29 119 297 979 1106 924 819 525 263 121 0 79 205 155 626 667 579 476 325 178 40 14 3 2 2 2 48 60 73 92 232 170 85 29 15 18 7 14 29
0 0 0 0 0 13 122 697 1049 1009 803 561 383 223 36 15 118 56 58 99 510 392 244 130 50 28 0 4 4 1 2 17 33 82 46 108 83 29 25 12 2 21 30
0 0 0 0 0 0 0 253 817 753 596 479 462 431 170 200 49 25 74 40 291 451 217 120 76 27 4 16 4 2 5 26 43 26 2 78 83 30 27 16 15 35 42
0 0 0 0 0 0 1 26 458 647 575 359 242 230 224 148 111 132 186 138 21 67 315 120 86 18 11 2 6 1 5 41 50 4 8 73 50 25 7 7 13 43 41
0 1 0 0 1 0 0 4 231 442 546 378 213 149 131 174 263 309 274 253 47 53 70 36 26 3 26 3 2 0 0 33 25 16 47 27 63 42 14 3 0 7 22
0 2 0 1 2 0 0 2 101 354 492 364 264 240 310 319 271 255 285 196 162 34 40 77 43 46 42 7 0 9 1 5 47 29 28 50 79 73 24 9 3 3 3
0 2 0 0 27 3 0 0 0 255 310 151 231 314 310 264 280 281 291 230 228 114 40 14 59 46 7 2 0 0 14 0 46 59 41 63 76 79 26 10 0 0 4
0 0 0 4 1 149 284 16 5 68 300 220 143 161 316 285 317 325 324 317 300 311 214 125 35 30 8 105 65 0 5 6 0 44 52 42 48 68 31 10 10 0 0
0 0 0 0 0 13 242 391 275 58 218 177 201 135 131 245 254 274 268 287 238 257 148 128 52 65 40 5 97 19 18 21 21 14 34 36 51 60 57 34 0 1 6
0 0 0 0 0 0 0 118 210 170 145 164 185 212 226 116 64 93 218 217 181 119 139 73 80 67 68 32 25 15 30 17 35 29 30 21 60 44 41 34 21 5 10
0 0 0 0 0 1 8 9 25 52 136 186 157 184 356 123 51 93 95 6 7 51 119 79 78 46 68 12 42 34 21 13 16 18 6 5 31 43 56 33 8 9 3
0 0 0 6 9 12 29 24 17 15 0 0 185 347 246 126 110 93 35 32 55 78 61 57 61 46 85 84 42 12 21 14 38 1 7 7 8 4 30 24 2 6 2
0 0 0 4 15 6 0 20 0 0 0 17 187 315 12 58 21 15 69 71 54 47 57 41 16 23 13 12 54 19 36 42 62 13 9 12 11 26 19 27 13 6 10
0 0 3 4 7 2 0 17 21 0 1 0 73 101 95 64 44 20 79 56 39 60 79 41 11 35 5 25 27 17 17 18 11 9 46 36 5 3 7 26 27 6 5
0 0 0 2 0 0 0 0 2 0 0 0 4 54 44 28 18 84 70 30 18 58 91 37 51 32 18 19 16 18 20 34 41 12 28 1 23 6 7 16 4 3 3
0 0 0 0 0 0 0 0 0 0 0 0 4 11 32 14 1 66 10 20 109 23 33 42 23 15 1 18 15 32 8 33 12 2 17 21 6 21 9 6 2 4 2
0 0 0 0 0 0 0 0 0 0 0 0 0 0 0 1 1 17 57 12 0 48 25 12 6 2 3 10 13 12 28 8 1 4 16 0 1 1 3 0 11 4 2

GFSMA_con_mucape_117.txt.gz
CAPE
2703 2623 2466 2252 1735 1639 1549 1425 1446 1517 1868 1711 1481 1250 1033 885 729 706 719 700 666 888 1730 1774 2111 1780 1659 1523 1157 1077 856 515 681 563 416 422 412 372 297 192 124 80 37
1536 1542 1678 1929 1681 1587 1581 1489 1300 1272 1409 1623 1488 1320 1132 1013 839 800 787 728 717 648 878 1683 2085 1932 2018 1819 1167 953 766 445 487 490 448 409 350 242 140 73 40 16 44
1262 1266 1344 1548 1640 1622 1575 1524 1475 1368 1261 1352 1422 1301 1160 1073 1029 1022 923 789 703 646 645 710 1093 1485 1576 1687 1280 896 661 351 336 476 580 466 240 180 89 49 22 0 8
1492 1418 1305 1265 1282 1513 1311 1375 1454 1576 1477 1408 1327 1261 1213 986 1024 997 1025 892 805 791 637 453 636 866 1126 1555 1593 1188 784 388 300 505 538 423 247 129 71 31 17 0 2
490 697 1291 1351 1281 1107 1003 1138 1257 1742 1401 1498 1572 1405 1262 1086 992 1090 1081 1014 898 823 719 465 339 251 443 777 1321 1339 900 464 351 353 437 350 262 116 69 22 22 3 0
356 299 300 487 829 862 700 534 869 1086 845 914 1189 1362 1193 1142 1286 1170 1209 1155 910 832 693 564 395 256 161 493 1026 1267 936 547 450 461 201 290 328 133 57 8 10 1 0
290 289 313 361 389 387 673 811 745 469 531 535 982 885 807 786 922 1036 1128 1011 951 884 782 651 475 308 252 233 595 897 617 634 557 273 201 243 281 153 63 17 5 0 0
0 0 0 260 487 403 404 625 903 994 769 686 537 485 417 339 536 608 714 744 786 927 872 693 429 268 247 116 102 353 629 639 847 380 357 285 232 121 72 32 19 7 2
0 0 0 0 0 134 269 179 738 1094 891 780 787 544 255 204 127 7 369 174 528 594 802 727 612 233 177 120 30 9 278 172 305 571 375 272 184 136 91 55 20 13 17
0 0 0 0 0 0 0 0 47 364 809 737 626 595 422 222 79 108 3 178 284 542 713 686 566 317 104 126 35 4 3 100 81 185 398 328 217 167 112 77 33 15 13
0 0 0 0 0 0 0 0 0 1 418 567 588 445 447 364 193 125 39 36 36 290 585 623 418 177 98 84 29 6 0 1 14 9 38 158 190 153 131 92 45 26 11
0 0 0 0 0 0 0 0 0 12 141 256 520 544 225 214 219 137 59 0 0 49 347 594 497 331 145 44 31 28 5 1 0 12 8 15 43 126 127 92 49 21 16
0 0 0 0 0 0 0 0 0 1 35 137 376 537 452 246 192 129 18 0 0 13 104 210 352 373 150 37 11 11 1 0 0 0 0 19 30 53 91 66 42 17 20
0 0 0 0 0 0 0 0 3 0 9 103 232 406 375 271 185 191 109 42 10 26 40 21 66 379 106 49 17 6 2 1 2 0 0 13 48 3 69 62 18 12 3
0 0 0 0 0 0 0 2 5 5 0 29 393 215 271 246 237 161 167 138 96 53 66 24 22 37 83 61 15 0 13 3 2 3 11 13 18 43 28 37 19 14 0
0 0 0 0 0 0 0 0 5 17 4 45 146 235 167 192 139 77 115 175 123 84 28 65 94 76 87 6 0 17 28 12 0 7 24 2 14 4 15 37 31 19 4
0 0 0 0 0 0 0 1 2 24 1 1 54 56 118 102 88 180 154 159 129 110 40 20 41 24 14 3 2 92 24 0 0 3 23 1 4 38 46 31 49 52 8
0 0 0 0 0 0 0 0 0 0 51 7 5 46 71 63 41 74 129 113 110 100 38 32 42 87 51 18 8 50 120 0 0 0 1 36 41 8 61 76 68 45 37
0 0 0 0 0 0 0 0 0 6 99 129 35 91 78 60 100 174 211 153 108 96 78 24 42 120 111 41 41 28 11 10 2 10 2 21 74 16 19 48 70 7 15
0 0 0 0 0 0 0 0 0 0 8 62 142 99 103 96 106 120 156 244 156 123 80 105 98 97 89 30 59 63 27 4 2 23 14 0 9 26 46 69 56 41 13
0 0 0 0 0 0 0 0 6 13 8 23 30 39 33 62 47 7 133 120 118 76 46 75 51 76 74 1 48 10 22 6 18 33 42 34 23 16 16 44 74 17 31
0 0 0 0 0 0 1 1 0 1 2 9 0 3 8 0 0 53 81 34 66 29 17 0 0 6 17 0 37 44 1 85 29 14 22 20 40 22 25 35 28 21 7
0 0 0 0 0 0 8 6 1 0 1 0 0 0 0 0 0 37 10 24 37 51 30 14 11 1 18 12 33 15 17 63 21 28 40 49 35 8 8 12 14 23 48
0 0 0 0 0 0 0 0 0 0 0 0 6 0 0 9 31 3 0 2 23 23 24 32 34 36 28 29 30 4 22 52 46 35 9 18 25 8 34 37 23 18 29
0 0 0 0 0 0 0 0 0 0 0 0 0 0 0 0 5 17 36 9 21 44 54 39 73 66 43 28 19 13 25 32 23 44 3 4 0 10 0 21 4 13 2
0 0 0 0 0 0 0 4 11 4 0 0 0 0 0 0 0 22 34 34 29 9 0 69 81 78 85 32 36 4 5 30 33 8 6 30 24 4 10 6 12 7 3

GFSMA_con_mucape_120.txt.gz
CAPE
1895 2093 2262 2590 2019 2142 1433 1295 1318 1383 1668 1770 1770 1379 1090 881 727 712 726 751 714 619 1347 1930 2111 1673 2290 1845 1389 1070 862 943 877 668 410 323 283 343 376 152 139 94 81
1697 1892 1773 1959 2109 2224 2012 1630 1327 1298 1507 1813 1657 1579 1291 1032 842 749 667 655 699 657 736 1876 2261 2364 2338 1977 1476 1182 1033 788 552 477 370 307 232 234 231 120 95 58 54
972 935 1272 1164 1409 1650 1331 1443 1362 1418 1290 1489 2105 1802 1373 1221 995 826 773 644 644 639 611 695 1385 1854 2031 1902 1742 1186 1039 684 474 388 335 322 214 177 184 115 68 23 30
1104 1112 1084 1095 1166 1314 1239 1086 1094 1149 1103 1011 1113 1581 1555 1211 1131 971 905 846 884 804 674 624 622 774 1257 1610 1834 1603 1243 853 596 531 326 349 310 177 118 117 67 36 3
325 347 443 915 1234 1229 1237 1057 952 955 1008 994 1120 1121 934 1188 1010 1046 1012 884 955 966 832 721 663 632 637 1009 1630 1844 1569 1176 742 586 374 348 345 172 92 94 75 10 5
81 148 109 99 130 196 364 994 680 728 615 680 955 611 730 867 673 598 843 804 894 985 915 833 794 692 568 610 671 1358 1698 1295 1145 851 533 544 544 211 116 87 71 9 3
0 0 32 133 119 38 82 153 417 496 276 206 341 195 267 223 176 485 567 667 753 707 723 645 666 750 583 400 281 917 1498 1491 1219 988 586 346 193 197 140 78 61 8 10
0 0 0 0 0 0 25 86 188 483 555 768 293 197 44 2 3 245 258 280 495 427 544 593 597 642 610 442 341 267 925 1174 1074 876 524 254 194 171 102 99 46 1 5
0 0 0 0 0 0 0 0 7 113 393 530 710 493 232 237 99 98 58 155 330 349 307 465 431 552 580 361 269 200 184 671 576 758 566 324 140 85 127 90 37 0 0
0 0 0 0 0 0 0 0 0 0 0 98 429 518 616 298 256 117 77 248 107 283 283 65 60 279 521 586 242 153 118 95 390 353 478 385 211 172 153 124 53 0 0
0 0 0 0 0 0 0 0 0 0 0 1 21 173 243 731 302 150 52 69 85 195 86 10 27 155 442 491 364 175 109 82 42 245 199 231 304 320 272 170 65 16 2
0 0 0 0 0 0 0 0 0 0 0 2 16 35 220 45 140 244 136 4 0 4 8 15 26 63 363 458 360 158 116 68 14 13 75 157 183 210 274 182 118 67 19
0 0 0 0 0 0 0 0 0 0 0 0 1 18 30 87 136 176 217 80 45 44 31 6 45 52 128 497 287 140 81 73 24 0 0 23 63 102 125 120 96 106 60
0 0 0 0 0 0 0 0 0 2 2 0 2 1 39 30 94 154 188 118 71 51 16 0 60 205 122 213 436 254 147 63 35 17 1 0 1 40 70 96 101 72 54
0 0 0 0 0 0 0 0 0 0 4 1 2 2 37 30 19 95 91 94 133 27 0 0 0 57 157 95 60 350 233 99 61 20 0 0 0 0 5 42 81 63 44
0 0 0 0 0 0 0 0 0 3 1 6 7 3 29 19 30 22 128 110 78 57 27 1 7 28 113 92 134 197 240 117 49 5 1 1 1 0 9 1 45 37 22
0 0 0 0 0 0 0 0 0 0 0 0 2 19 33 36 173 91 157 70 65 93 54 42 46 48 76 80 99 192 74 63 44 13 0 0 0 9 13 5 5 12 48
0 0 0 0 0 0 0 0 0 0 0 0 3 10 9 35 46 33 85 69 63 102 102 57 65 61 54 59 66 130 47 11 3 15 0 2 1 6 5 22 7 51 15
0 0 0 0 0 0 0 0 0 0 0 0 3 4 11 48 42 105 94 92 63 54 50 39 41 52 25 33 24 42 18 2 52 102 0 6 3 5 0 1 9 40 11
0 0 0 0 0 0 0 0 0 0 0 2 4 26 46 35 35 56 54 75 90 66 64 51 46 51 42 6 16 39 17 2 13 56 25 11 18 16 32 38 53 65 49
0 0 0 0 0 0 0 0 0 0 0 5 10 34 47 39 44 72 63 63 115 148 142 126 98 37 34 0 1 53 45 31 18 35 144 14 14 25 19 42 13 33 65
0 0 0 0 0 0 0 0 0 0 1 5 9 11 8 23 16 30 21 39 69 80 71 107 119 34 28 25 7 28 51 18 20 5 12 47 50 42 10 3 10 29 47
0 0 0 0 0 0 0 0 0 1 6 3 1 1 6 5 1 0 0 0 50 53 65 59 93 32 31 18 9 67 40 27 10 4 19 38 39 29 25 24 15 42 45
0 0 0 0 0 0 0 0 0 0 0 0 1 1 2 1 0 0 0 0 29 34 55 24 17 17 10 33 46 20 38 14 25 48 22 52 28 26 19 10 40 23 21
0 0 0 0 0 0 0 0 0 0 0 0 0 0 0 0 0 0 0 0 0 0 0 13 21 24 43 44 46 32 38 5 10 38 28 34 9 22 10 1 19 13 19
0 0 0 0 0 0 0 0 0 0 0 0 0 0 0 0 0 0 0 0 0 1 13 23 27 42 15 0 34 9 43 43 37 17 10 14 11 21 1 0 1 2 7

GFSMA_con_mucape_123.txt.gz
CAPE
1984 1821 1771 1817 1886 1502 1410 1520 1831 1744 2002 1936 2074 2204 1831 1650 1514 1468 1442 739 637 635 1101 1538 1837 1861 2002 1733 1504 1434 1086 1126 1027 864 569 382 399 370 281 225 147 76 66
1348 1473 1712 1761 1804 1653 1644 1644 1362 1386 1429 1506 2208 1713 2087 1791 1587 1554 1448 1242 560 541 567 953 1568 2013 1727 1745 1353 1239 1198 963 967 838 523 328 218 226 214 166 120 80 81
1116 985 1143 1301 1581 1562 1456 1593 1469 1495 1479 1492 1412 1322 1560 1574 1646 1539 1520 1399 956 506 442 475 756 1407 1719 1494 1473 1131 1017 809 744 671 576 338 172 155 181 132 105 79 64
952 855 714 706 743 1051 1598 1711 1131 1568 1425 1502 1520 1386 1195 1218 1094 1536 1497 1286 1261 1076 637 549 497 491 824 1317 1681 1644 1343 994 775 620 559 305 166 135 144 118 89 62 44
491 579 600 594 594 903 1148 1081 1390 1153 1155 1181 1325 1299 1324 1112 1012 922 861 886 1245 1203 1265 829 620 523 497 577 875 1312 1666 1298 987 768 552 369 264 158 116 100 93 66 45
0 3 26 80 154 176 392 544 817 791 1097 1237 1061 1016 1151 800 1184 828 944 873 878 855 1065 909 860 726 517 490 504 896 1326 1514 1411 1142 790 539 364 199 119 86 88 71 42
0 0 0 0 0 0 52 56 40 233 613 790 708 353 173 256 329 357 719 941 819 628 685 681 692 1271 803 598 531 727 1164 1329 1388 1349 1054 652 363 220 122 106 82 70 43
0 0 0 0 0 0 0 0 0 13 439 315 439 375 123 232 199 232 606 532 631 805 367 493 614 959 776 816 564 437 566 1116 1285 1232 1066 585 356 240 109 89 72 47 61
0 0 0 0 0 0 0 0 4 7 4 250 545 308 63 5 218 76 101 294 694 835 139 779 924 843 768 793 495 476 407 317 645 934 762 605 350 259 218 118 68 51 68
0 0 0 0 0 0 0 0 0 0 7 12 64 447 773 216 254 161 48 413 686 323 442 1034 959 909 909 894 435 489 451 283 242 486 576 611 451 273 168 188 91 48 55
0 0 0 0 0 0 0 0 0 0 0 1 13 25 349 494 225 44 91 126 246 266 441 846 994 948 795 806 879 458 461 258 179 167 402 459 510 344 240 190 146 69 51
0 0 0 0 0 0 0 0 0 0 0 0 0 14 5 111 57 39 11 56 107 371 348 690 679 847 1020 791 414 255 279 438 214 115 66 206 340 329 237 158 204 140 68
0 0 0 0 0 0 0 0 0 0 0 0 0 0 5 12 108 36 89 140 286 264 581 704 740 743 746 517 448 72 180 389 289 92 62 25 151 247 196 102 104 186 84
0 0 0 0 0 0 0 0 0 0 0 0 0 3 0 4 33 123 43 58 197 287 84 198 403 423 521 386 163 95 95 333 369 131 60 48 19 40 185 194 148 138 42
0 0 0 0 0 0 0 0 0 0 0 2 0 1 2 2 51 34 141 57 52 57 202 143 93 310 482 453 143 177 225 54 270 304 112 76 46 24 1 150 135 124 139
0 0 0 0 0 0 0 0 0 0 0 0 2 4 2 3 4 33 82 120 55 48 71 325 192 155 406 271 115 103 107 12 70 242 241 170 60 42 4 0 59 82 87
0 0 0 0 0 0 0 0 0 0 0 0 0 2 2 4 3 18 46 52 27 50 31 127 475 220 349 477 254 57 35 8 14 36 364 214 112 21 33 0 0 1 89
0 0 0 0 0 0 0 0 0 0 0 0 0 2 0 3 8 55 59 48 17 13 76 46 138 462 495 287 340 92 46 37 37 51 288 273 137 20 51 0 0 0 0
0 0 0 0 0 0 0 0 0 0 0 0 0 6 6 5 7 4 4 33 83 23 19 53 130 324 244 261 147 80 71 43 79 195 53 175 123 17 22 0 0 0 4
0 0 0 0 0 0 0 0 0 0 0 0 0 5 15 13 11 10 21 27 17 21 45 134 73 56 8 0 39 66 64 50 29 13 33 8 10 51 6 13 1 0 0
0 0 0 0 0 0 0 0 0 0 0 0 0 7 9 12 23 22 23 55 47 22 69 87 53 35 16 32 6 53 29 1 10 0 34 24 77 19 19 12 32 0 0
0 0 0 0 0 0 0 0 0 0 0 0 0 0 7 13 16 3 0 5 25 21 41 49 78 68 50 28 28 43 40 12 0 3 49 2 85 17 14 15 18 7 9
0 0 0 0 0 0 0 0 0 0 0 0 0 0 1 3 3 7 7 5 6 17 2 1 1 25 67 57 193 39 20 0 3 8 38 19 30 58 29 32 7 2 19
0 0 0 0 0 0 0 0 0 0 0 0 0 0 0 0 2 4 9 12 7 6 4 0 0 0 58 31 62 30 10 14 12 3 7 0 32 41 69 49 20 18 15
0 0 0 0 0 0 0 0 0 0 0 0 0 0 0 0 0 0 0 0 0 0 0 0 0 0 26 55 24 55 20 0 1 0 14 9 23 10 33 21 29 9 1
0 0 0 0 0 0 0 0 0 0 0 0 0 0 0 0 0 0 0 0 0 0 0 0 0 0 0 14 0 0 23 25 12 2 3 5 10 37 21 31 19 42 9

GFSMA_con_mucape_126.txt.gz
CAPE
2856 2557 2315 2366 2172 2259 2045 2117 2385 2136 2275 2232 2323 2187 2300 2118 1764 1407 1300 916 676 677 1297 1583 1786 2010 2032 1551 1291 1260 1096 1151 1106 979 703 349 262 319 260 236 220 136 163
2469 2361 2375 2112 2204 2305 2327 2118 1718 2102 2139 1937 2171 2328 2207 2184 2048 1891 1576 1428 708 502 717 1308 1598 1772 2317 2024 1338 1297 1280 1002 1021 896 722 340 199 168 212 187 149 88 103
1824 1645 2231 2136 2126 2230 2065 2089 1904 2115 1890 1777 1778 2081 2282 2323 1967 1791 2037 1669 1114 585 388 420 956 1387 1614 2164 1387 1154 1060 913 844 872 628 377 207 96 81 122 114 76 79
1671 1611 1287 1215 1239 983 1036 2130 2061 2076 1799 1743 1534 1474 1794 2222 2240 2018 1927 1960 1667 1448 704 407 341 554 915 1427 1747 1449 1158 819 650 734 602 375 264 150 81 97 105 84 69
806 843 748 822 772 852 847 852 1229 1763 1821 1568 1605 1413 1430 1594 2228 1767 1867 1884 1848 1820 1495 948 693 413 396 653 1303 1734 1413 1061 893 828 609 446 307 166 83 73 77 87 83
485 200 43 15 25 52 102 260 860 872 1058 1270 1115 975 902 1233 1630 1185 1275 1464 1711 1860 1836 1636 1179 1029 598 475 510 1175 1639 1599 1358 1151 910 579 345 178 74 68 84 80 73
0 0 0 2 1 0 3 4 27 195 879 1203 778 649 762 1090 406 625 134 14 252 1182 1593 2005 1790 1776 974 537 460 657 1431 1745 1630 1376 1025 722 403 241 109 61 62 81 83
0 0 0 0 0 0 11 9 10 6 12 747 826 542 382 297 347 216 9 0 84 481 1003 1527 1508 1451 1484 1356 966 490 765 1311 1623 1351 1001 685 452 278 178 89 62 72 80
0 0 0 0 0 0 0 0 0 9 10 8 546 970 470 328 367 121 0 128 337 707 1040 1197 1408 1506 1717 1536 1046 705 594 503 995 1179 947 660 503 331 225 107 81 69 80
0 0 0 0 0 0 0 0 0 0 0 14 13 285 914 686 310 293 641 680 814 1020 1368 1168 1159 1153 1128 1795 1156 743 579 471 444 612 839 719 648 413 267 173 105 90 84
0 0 0 0 0 0 0 0 0 0 0 0 16 14 10 482 769 832 352 639 716 719 892 1285 1360 1311 1304 1517 1633 1180 506 493 406 356 408 658 666 548 362 235 142 124 114
0 0 0 0 0 0 0 0 0 0 0 0 0 0 16 10 88 333 537 375 353 573 806 849 1102 1204 1421 1521 994 565 642 476 334 357 291 284 443 456 363 266 231 193 155
0 0 0 0 0 0 0 0 0 0 0 1 0 0 0 1 5 24 14 242 269 118 389 775 848 1045 1098 1397 1315 542 437 503 365 288 319 201 271 421 400 292 200 202 153
0 0 0 0 0 0 0 0 0 0 0 0 1 1 0 0 0 33 34 107 199 144 178 259 539 796 1236 1091 1026 577 602 321 238 140 232 310 201 166 373 400 284 154 110
0 0 0 0 0 0 0 0 0 0 0 0 0 0 1 3 3 4 6 86 131 185 103 389 300 574 571 842 845 989 946 347 167 100 104 311 319 112 60 219 298 225 139
0 0 0 0 0 0 0 0 0 0 0 0 0 0 0 1 0 2 4 18 162 195 354 76 85 129 565 346 500 886 860 268 140 79 40 233 335 284 113 65 191 258 232
0 0 0 0 0 0 0 0 0 0 0 0 0 0 0 0 5 4 6 9 124 56 107 219 100 162 441 751 511 629 625 574 276 58 49 36 129 428 402 128 77 71 173
0 0 0 0 0 0 0 0 0 0 0 0 0 0 0 3 8 5 5 9 2 66 43 51 23 141 148 277 568 714 705 231 407 63 13 27 65 105 429 300 205 96 52
0 0 0 0 0 0 0 0 0 0 0 0 2 0 7 6 8 10 19 26 4 20 17 46 24 10 22 108 363 643 435 556 59 29 55 64 35 31 280 405 314 94 26
0 0 0 0 0 0 0 0 0 0 0 0 0 0 0 0 9 11 19 34 36 7 6 32 56 185 62 33 636 691 137 57 109 71 34 31 71 98 289 404 324 129 61
0 0 0 0 0 0 0 0 0 0 0 0 0 0 0 7 8 9 8 6 9 9 19 8 15 23 133 28 54 39 28 56 9 18 21 43 68 38 57 224 230 82 99
0 0 0 0 0 0 0 0 0 0 0 0 0 0 1 1 4 6 3 8 4 9 23 6 7 16 19 6 8 47 25 51 0 6 0 1 35 45 7 5 0 28 63
0 0 0 0 0 0 0 0 0 0 0 0 0 0 0 0 0 0 7 9 3 0 0 0 0 0 1 0 4 2 17 78 55 49 9 17 0 1 7 9 34 60 37
0 0 0 0 0 0 0 0 0 0 0 0 0 0 0 0 0 0 0 0 0 3 6 1 1 0 0 0 0 0 0 48 48 47 35 12 3 0 12 39 55 47 40
0 0 0 0 0 0 0 0 0 0 0 0 0 0 0 0 0 0 0 0 0 0 0 0 0 2 0 0 2 0 0 63 44 18 13 9 0 0 11 37 44 88 36
0 0 0 0 0 0 0 0 0 0 0 0 0 0 0 0 0 0 0 0 0 0 0 0 0 0 0 0 0 0 0 8 1 10 0 19 0 14 0 12 19 18 41